| time (UTC) | temp F | wind direction | speed MPH | gust MPH | rain 1hr in | rain 24hr in | rain mn in | humidity % | barometer mb |
| 20260509173617 | 84 | 47 | 3.0 | 4.0 | 0.00 | 0.00 | 0.00 | 60 | 1012.7 |
| 20260509173416 | 84 | 67 | 5.0 | 7.0 | 0.00 | 0.00 | 0.00 | 59 | 1012.7 |
| 20260509173225 | 84 | 34 | 4.0 | 5.0 | 0.00 | 0.00 | 0.00 | 58 | 1012.7 |
| 20260509173023 | 85 | 13 | 4.0 | 7.0 | 0.00 | 0.00 | 0.00 | 59 | 1012.8 |
| 20260509172822 | 84 | 13 | 5.0 | 6.0 | 0.00 | 0.00 | 0.00 | 60 | 1012.8 |
| 20260509172623 | 85 | 31 | 6.0 | 9.0 | 0.00 | 0.00 | 0.00 | 59 | 1012.8 |
| 20260509172419 | 85 | 130 | 2.0 | 4.0 | 0.00 | 0.00 | 0.00 | 59 | 1012.7 |
| 20260509172217 | 83 | 49 | 4.0 | 6.0 | 0.00 | 0.00 | 0.00 | 61 | 1012.9 |
| 20260509172016 | 83 | 36 | 4.0 | 7.0 | 0.00 | 0.00 | 0.00 | 61 | 1012.8 |
| 20260509171825 | 83 | 34 | 4.0 | 7.0 | 0.00 | 0.00 | 0.00 | 62 | 1012.9 |
| 20260509171623 | 83 | 331 | 1.0 | 2.0 | 0.00 | 0.00 | 0.00 | 61 | 1012.8 |
| 20260509171421 | 84 | 332 | 2.0 | 5.0 | 0.00 | 0.00 | 0.00 | 60 | 1012.9 |
| 20260509171220 | 83 | 18 | 3.0 | 7.0 | 0.00 | 0.00 | 0.00 | 60 | 1013.0 |
| 20260509171020 | 83 | 38 | 4.0 | 6.0 | 0.00 | 0.00 | 0.00 | 60 | 1013.0 |
| 20260509170817 | 83 | 35 | 6.0 | 9.0 | 0.00 | 0.00 | 0.00 | 61 | 1013.1 |
| 20260509170616 | 83 | 12 | 3.0 | 6.0 | 0.00 | 0.00 | 0.00 | 61 | 1013.0 |
| 20260509170505 | 83 | 220 | 2.0 | 3.0 | 0.00 | 0.00 | 0.00 | 61 | 1013.0 |
| 20260509170225 | 82 | 26 | 3.0 | 4.0 | 0.00 | 0.00 | 0.00 | 60 | 1013.1 |
| 20260509170024 | 83 | 44 | 4.0 | 9.0 | 0.00 | 0.00 | 0.00 | 61 | 1013.2 |
| 20260509165820 | 83 | 50 | 3.0 | 5.0 | 0.00 | 0.00 | 0.00 | 60 | 1013.0 |
| 20260509165618 | 84 | 35 | 6.0 | 9.0 | 0.00 | 0.00 | 0.00 | 59 | 1013.1 |
| 20260509165417 | 84 | 65 | 2.0 | 4.0 | 0.00 | 0.00 | 0.00 | 59 | 1013.0 |
| 20260509165236 | 83 | 89 | 2.0 | 4.0 | 0.00 | 0.00 | 0.00 | 60 | 1013.2 |
| 20260509165024 | 83 | 40 | 3.0 | 5.0 | 0.00 | 0.00 | 0.00 | 59 | 1013.3 |
| 20260509164845 | 82 | 24 | 3.0 | 4.0 | 0.00 | 0.00 | 0.00 | 60 | 1013.4 |
| 20260509164624 | 82 | 8 | 3.0 | 5.0 | 0.00 | 0.00 | 0.00 | 62 | 1013.3 |
| 20260509164424 | 82 | 334 | 5.0 | 8.0 | 0.00 | 0.00 | 0.00 | 63 | 1013.3 |
| 20260509164219 | 82 | 10 | 3.0 | 5.0 | 0.00 | 0.00 | 0.00 | 63 | 1013.3 |
| 20260509164017 | 81 | 26 | 4.0 | 6.0 | 0.00 | 0.00 | 0.00 | 63 | 1013.2 |
| 20260509163828 | 80 | 314 | 4.0 | 5.0 | 0.00 | 0.00 | 0.00 | 66 | 1013.1 |
| 20260509163624 | 80 | 273 | 3.0 | 4.0 | 0.00 | 0.00 | 0.00 | 63 | 1013.3 |
| 20260509163423 | 81 | 264 | 2.0 | 4.0 | 0.00 | 0.00 | 0.00 | 63 | 1013.2 |
| 20260509163221 | 80 | 249 | 2.0 | 4.0 | 0.00 | 0.00 | 0.00 | 65 | 1013.3 |
| 20260509163020 | 81 | 289 | 5.0 | 5.0 | 0.00 | 0.00 | 0.00 | 63 | 1013.2 |
| 20260509162823 | 80 | 328 | 1.0 | 3.0 | 0.00 | 0.00 | 0.00 | 64 | 1013.4 |
| 20260509162637 | 81 | 3 | 4.0 | 7.0 | 0.00 | 0.00 | 0.00 | 63 | 1013.3 |
| 20260509162425 | 80 | 351 | 2.0 | 4.0 | 0.00 | 0.00 | 0.00 | 64 | 1013.2 |
| 20260509162224 | 82 | 302 | 2.0 | 4.0 | 0.00 | 0.00 | 0.00 | 62 | 1013.2 |
| 20260509162043 | 80 | 70 | 2.0 | 3.0 | 0.00 | 0.00 | 0.00 | 63 | 1013.2 |
| 20260509161841 | 79 | 346 | 3.0 | 7.0 | 0.00 | 0.00 | 0.00 | 65 | 1013.2 |
| 20260509161640 | 81 | 3 | 5.0 | 8.0 | 0.00 | 0.00 | 0.00 | 65 | 1013.3 |
| 20260509161418 | 80 | 22 | 5.0 | 6.0 | 0.00 | 0.00 | 0.00 | 64 | 1013.2 |
| 20260509161217 | 80 | 285 | 4.0 | 6.0 | 0.00 | 0.00 | 0.00 | 66 | 1013.2 |
| 20260509161025 | 80 | 333 | 1.0 | 4.0 | 0.00 | 0.00 | 0.00 | 65 | 1013.2 |
| 20260509160824 | 80 | 350 | 1.0 | 2.0 | 0.00 | 0.00 | 0.00 | 65 | 1013.2 |
| 20260509160622 | 82 | 287 | 4.0 | 6.0 | 0.00 | 0.00 | 0.00 | 64 | 1013.2 |
| 20260509160421 | 82 | 123 | 1.0 | 3.0 | 0.00 | 0.00 | 0.00 | 61 | 1013.3 |
| 20260509160220 | 81 | 5 | 1.0 | 3.0 | 0.00 | 0.00 | 0.00 | 62 | 1013.2 |
| 20260509160018 | 80 | 46 | 2.0 | 3.0 | 0.00 | 0.00 | 0.00 | 64 | 1013.4 |
| 20260509155817 | 79 | 31 | 4.0 | 5.0 | 0.00 | 0.00 | 0.00 | 65 | 1013.3 |
| 20260509155806 | 79 | 38 | 4.0 | 6.0 | 0.00 | 0.00 | 0.00 | 66 | 1013.2 |
| 20260509155424 | 80 | 323 | 3.0 | 6.0 | 0.00 | 0.00 | 0.00 | 66 | 1013.3 |
| 20260509155223 | 80 | 6 | 3.0 | 7.0 | 0.00 | 0.00 | 0.00 | 67 | 1013.3 |
| 20260509155023 | 80 | 27 | 3.0 | 5.0 | 0.00 | 0.00 | 0.00 | 66 | 1013.1 |
| 20260509154820 | 78 | 321 | 3.0 | 6.0 | 0.00 | 0.00 | 0.00 | 70 | 1013.2 |
| 20260509154658 | 79 | 310 | 4.0 | 6.0 | 0.00 | 0.00 | 0.00 | 68 | 1013.3 |
| 20260509154417 | 78 | 302 | 1.0 | 3.0 | 0.00 | 0.00 | 0.00 | 67 | 1013.3 |
| 20260509154225 | 78 | 323 | 1.0 | 2.0 | 0.00 | 0.00 | 0.00 | 68 | 1013.4 |
| 20260509154024 | 77 | 300 | 3.0 | 6.0 | 0.00 | 0.00 | 0.00 | 69 | 1013.1 |
| 20260509153823 | 78 | 330 | 5.0 | 6.0 | 0.00 | 0.00 | 0.00 | 68 | 1013.1 |
| 20260509153622 | 79 | 13 | 2.0 | 4.0 | 0.00 | 0.00 | 0.00 | 66 | 1013.0 |
| 20260509153421 | 79 | 13 | 3.0 | 4.0 | 0.00 | 0.00 | 0.00 | 67 | 1013.2 |
| 20260509153240 | 79 | 12 | 4.0 | 5.0 | 0.00 | 0.00 | 0.00 | 69 | 1013.1 |
| 20260509153017 | 78 | 78 | 1.0 | 2.0 | 0.00 | 0.00 | 0.00 | 69 | 1013.1 |
| 20260509152826 | 77 | 277 | 3.0 | 5.0 | 0.00 | 0.00 | 0.00 | 70 | 1013.2 |
| 20260509152624 | 77 | 330 | 3.0 | 5.0 | 0.00 | 0.00 | 0.00 | 71 | 1013.1 |
| 20260509152422 | 77 | 354 | 2.0 | 4.0 | 0.00 | 0.00 | 0.00 | 70 | 1013.1 |
| 20260509152221 | 76 | 266 | 4.0 | 5.0 | 0.00 | 0.00 | 0.00 | 75 | 1013.2 |
| 20260509152020 | 76 | 218 | 4.0 | 6.0 | 0.00 | 0.00 | 0.00 | 75 | 1013.1 |
| 20260509151818 | 76 | 255 | 6.0 | 9.0 | 0.00 | 0.00 | 0.00 | 76 | 1013.2 |
| 20260509151637 | 76 | 255 | 6.0 | 8.0 | 0.00 | 0.00 | 0.00 | 74 | 1013.2 |
| 20260509151425 | 76 | 316 | 3.0 | 4.0 | 0.00 | 0.00 | 0.00 | 75 | 1013.2 |
| 20260509151224 | 75 | 256 | 5.0 | 7.0 | 0.00 | 0.00 | 0.00 | 77 | 1013.0 |
| 20260509151023 | 75 | 277 | 3.0 | 5.0 | 0.00 | 0.00 | 0.00 | 75 | 1013.2 |
| 20260509150841 | 75 | 252 | 6.0 | 7.0 | 0.00 | 0.00 | 0.00 | 75 | 1013.1 |
| 20260509150620 | 75 | 258 | 6.0 | 8.0 | 0.00 | 0.00 | 0.00 | 78 | 1013.2 |
| 20260509150438 | 76 | 270 | 6.0 | 8.0 | 0.00 | 0.00 | 0.00 | 76 | 1013.1 |
| 20260509150216 | 75 | 315 | 1.0 | 3.0 | 0.00 | 0.00 | 0.00 | 75 | 1013.1 |
| 20260509150026 | 75 | 273 | 5.0 | 6.0 | 0.00 | 0.00 | 0.00 | 77 | 1013.2 |
| 20260509145824 | 75 | 259 | 3.0 | 5.0 | 0.00 | 0.00 | 0.00 | 78 | 1013.2 |
| 20260509145622 | 75 | 244 | 5.0 | 6.0 | 0.00 | 0.00 | 0.00 | 77 | 1013.1 |
| 20260509145421 | 74 | 257 | 5.0 | 6.0 | 0.00 | 0.00 | 0.00 | 79 | 1013.1 |
| 20260509145220 | 74 | 273 | 6.0 | 9.0 | 0.00 | 0.00 | 0.00 | 80 | 1013.2 |
| 20260509145018 | 74 | 304 | 4.0 | 6.0 | 0.00 | 0.00 | 0.00 | 79 | 1013.0 |
| 20260509144816 | 74 | 316 | 4.0 | 6.0 | 0.00 | 0.00 | 0.00 | 79 | 1013.1 |
| 20260509144625 | 74 | 308 | 3.0 | 4.0 | 0.00 | 0.00 | 0.00 | 81 | 1012.9 |
| 20260509144424 | 74 | 255 | 7.0 | 9.0 | 0.00 | 0.00 | 0.00 | 82 | 1013.1 |
| 20260509144222 | 73 | 251 | 7.0 | 9.0 | 0.00 | 0.00 | 0.00 | 81 | 1013.0 |
| 20260509144022 | 73 | 263 | 6.0 | 8.0 | 0.00 | 0.00 | 0.00 | 82 | 1013.1 |
| 20260509143819 | 73 | 276 | 7.0 | 9.0 | 0.00 | 0.00 | 0.00 | 82 | 1013.3 |
| 20260509143618 | 73 | 294 | 5.0 | 7.0 | 0.00 | 0.00 | 0.00 | 82 | 1013.1 |
| 20260509143417 | 73 | 276 | 6.0 | 8.0 | 0.00 | 0.00 | 0.00 | 82 | 1013.1 |
| 20260509143225 | 72 | 272 | 7.0 | 9.0 | 0.00 | 0.00 | 0.00 | 83 | 1013.0 |
| 20260509143044 | 72 | 297 | 6.0 | 9.0 | 0.00 | 0.00 | 0.00 | 83 | 1012.9 |
| 20260509142822 | 72 | 272 | 8.0 | 10.0 | 0.00 | 0.00 | 0.00 | 83 | 1013.0 |
| 20260509142641 | 72 | 296 | 5.0 | 6.0 | 0.00 | 0.00 | 0.00 | 82 | 1013.2 |
| 20260509142419 | 72 | 264 | 6.0 | 7.0 | 0.00 | 0.00 | 0.00 | 83 | 1012.9 |
| 20260509142221 | 72 | 258 | 5.0 | 7.0 | 0.00 | 0.00 | 0.00 | 83 | 1013.2 |
| 20260509142020 | 72 | 253 | 6.0 | 7.0 | 0.00 | 0.00 | 0.00 | 83 | 1013.0 |
| 20260509141825 | 72 | 252 | 5.0 | 6.0 | 0.00 | 0.00 | 0.00 | 83 | 1013.2 |
| 20260509141624 | 72 | 270 | 4.0 | 5.0 | 0.00 | 0.00 | 0.00 | 84 | 1013.2 |
| 20260509141442 | 72 | 269 | 6.0 | 7.0 | 0.00 | 0.00 | 0.00 | 83 | 1013.2 |
| 20260509141221 | 72 | 265 | 5.0 | 6.0 | 0.00 | 0.00 | 0.00 | 85 | 1013.1 |
| 20260509141019 | 72 | 290 | 3.0 | 5.0 | 0.00 | 0.00 | 0.00 | 84 | 1013.1 |
| 20260509140818 | 72 | 259 | 3.0 | 4.0 | 0.00 | 0.00 | 0.00 | 84 | 1012.9 |
| 20260509140616 | 72 | 258 | 3.0 | 4.0 | 0.00 | 0.00 | 0.00 | 83 | 1013.0 |
| 20260509140428 | 72 | 272 | 3.0 | 4.0 | 0.00 | 0.00 | 0.00 | 83 | 1013.3 |
| 20260509140227 | 72 | 273 | 4.0 | 6.0 | 0.00 | 0.00 | 0.00 | 84 | 1013.3 |
| 20260509140022 | 72 | 264 | 4.0 | 5.0 | 0.00 | 0.00 | 0.00 | 83 | 1013.2 |
| 20260509135821 | 72 | 296 | 5.0 | 6.0 | 0.00 | 0.00 | 0.00 | 84 | 1013.2 |
| 20260509135619 | 71 | 270 | 5.0 | 6.0 | 0.00 | 0.00 | 0.00 | 84 | 1013.1 |
| 20260509135418 | 71 | 323 | 4.0 | 4.0 | 0.00 | 0.00 | 0.00 | 83 | 1013.0 |
| 20260509135216 | 71 | 281 | 3.0 | 5.0 | 0.00 | 0.00 | 0.00 | 84 | 1013.0 |
| 20260509135025 | 71 | 312 | 3.0 | 4.0 | 0.00 | 0.00 | 0.00 | 84 | 1013.0 |
| 20260509134826 | 71 | 275 | 5.0 | 6.0 | 0.00 | 0.00 | 0.00 | 84 | 1013.0 |
| 20260509134622 | 71 | 249 | 6.0 | 7.0 | 0.00 | 0.00 | 0.00 | 84 | 1013.0 |
| 20260509134421 | 71 | 289 | 5.0 | 6.0 | 0.00 | 0.00 | 0.00 | 84 | 1013.0 |
| 20260509134219 | 71 | 295 | 5.0 | 7.0 | 0.00 | 0.00 | 0.00 | 84 | 1013.1 |
| 20260509134018 | 71 | 280 | 7.0 | 8.0 | 0.00 | 0.00 | 0.00 | 83 | 1013.2 |
| 20260509133816 | 71 | 287 | 4.0 | 6.0 | 0.00 | 0.00 | 0.00 | 83 | 1013.1 |
| 20260509133625 | 71 | 294 | 5.0 | 7.0 | 0.00 | 0.00 | 0.00 | 83 | 1013.0 |
| 20260509133423 | 70 | 296 | 4.0 | 6.0 | 0.00 | 0.00 | 0.00 | 84 | 1013.0 |
| 20260509133242 | 70 | 305 | 5.0 | 6.0 | 0.00 | 0.00 | 0.00 | 84 | 1013.2 |
| 20260509133023 | 70 | 293 | 5.0 | 6.0 | 0.00 | 0.00 | 0.00 | 84 | 1012.9 |
| 20260509132821 | 70 | 289 | 5.0 | 6.0 | 0.00 | 0.00 | 0.00 | 85 | 1013.0 |
| 20260509132617 | 70 | 305 | 6.0 | 7.0 | 0.00 | 0.00 | 0.00 | 85 | 1012.9 |
| 20260509132416 | 69 | 298 | 5.0 | 6.0 | 0.00 | 0.00 | 0.00 | 85 | 1012.8 |
| 20260509132225 | 69 | 289 | 6.0 | 7.0 | 0.00 | 0.00 | 0.00 | 86 | 1013.0 |
| 20260509132024 | 69 | 298 | 5.0 | 6.0 | 0.00 | 0.00 | 0.00 | 86 | 1012.9 |
| 20260509131822 | 69 | 311 | 6.0 | 7.0 | 0.00 | 0.00 | 0.00 | 86 | 1013.0 |
| 20260509131620 | 68 | 312 | 6.0 | 7.0 | 0.00 | 0.00 | 0.00 | 87 | 1013.1 |
| 20260509131422 | 68 | 302 | 5.0 | 6.0 | 0.00 | 0.00 | 0.00 | 87 | 1013.0 |
| 20260509131217 | 68 | 320 | 5.0 | 6.0 | 0.00 | 0.00 | 0.00 | 88 | 1013.1 |
| 20260509131016 | 68 | 320 | 4.0 | 6.0 | 0.00 | 0.00 | 0.00 | 88 | 1012.9 |
| 20260509130825 | 68 | 318 | 5.0 | 7.0 | 0.00 | 0.00 | 0.00 | 89 | 1012.8 |
| 20260509130623 | 68 | 312 | 6.0 | 7.0 | 0.00 | 0.00 | 0.00 | 88 | 1013.2 |
| 20260509130422 | 68 | 305 | 5.0 | 7.0 | 0.00 | 0.00 | 0.00 | 88 | 1013.0 |
| 20260509130220 | 67 | 297 | 4.0 | 6.0 | 0.00 | 0.00 | 0.00 | 89 | 1012.9 |
| 20260509130019 | 67 | 277 | 4.0 | 5.0 | 0.00 | 0.00 | 0.00 | 89 | 1013.0 |
| 20260509125817 | 67 | 309 | 4.0 | 7.0 | 0.00 | 0.00 | 0.00 | 89 | 1012.9 |
| 20260509125616 | 67 | 309 | 5.0 | 7.0 | 0.00 | 0.00 | 0.00 | 90 | 1012.9 |
| 20260509125425 | 67 | 310 | 5.0 | 6.0 | 0.00 | 0.00 | 0.00 | 90 | 1012.9 |
| 20260509125223 | 66 | 318 | 5.0 | 6.0 | 0.00 | 0.00 | 0.00 | 90 | 1012.8 |
| 20260509125022 | 66 | 313 | 6.0 | 7.0 | 0.00 | 0.00 | 0.00 | 91 | 1012.9 |
| 20260509124840 | 66 | 286 | 6.0 | 7.0 | 0.00 | 0.00 | 0.00 | 91 | 1012.9 |
| 20260509124619 | 65 | 291 | 6.0 | 8.0 | 0.00 | 0.00 | 0.00 | 92 | 1013.1 |
| 20260509124417 | 65 | 283 | 5.0 | 7.0 | 0.00 | 0.02 | 0.00 | 92 | 1013.1 |
| 20260509124236 | 65 | 281 | 6.0 | 6.0 | 0.00 | 0.02 | 0.00 | 92 | 1013.2 |
| 20260509124024 | 65 | 281 | 4.0 | 4.0 | 0.00 | 0.06 | 0.00 | 92 | 1013.1 |
| 20260509123826 | 65 | 293 | 3.0 | 4.0 | 0.00 | 0.10 | 0.00 | 92 | 1013.0 |
| 20260509123621 | 65 | 291 | 3.0 | 4.0 | 0.00 | 0.15 | 0.00 | 93 | 1012.8 |
| 20260509123420 | 65 | 291 | 3.0 | 4.0 | 0.00 | 0.17 | 0.00 | 93 | 1012.8 |
| 20260509123319 | 64 | 272 | 4.0 | 5.0 | 0.00 | 0.19 | 0.00 | 94 | 1013.0 |
| 20260509123019 | 64 | 261 | 5.0 | 5.0 | 0.00 | 0.20 | 0.00 | 94 | 1013.0 |
| 20260509122818 | 64 | 243 | 5.0 | 7.0 | 0.00 | 0.20 | 0.00 | 94 | 1012.9 |
| 20260509122624 | 64 | 233 | 4.0 | 5.0 | 0.00 | 0.20 | 0.00 | 94 | 1012.8 |
| 20260509122425 | 64 | 246 | 4.0 | 5.0 | 0.00 | 0.20 | 0.00 | 94 | 1012.7 |
| 20260509122222 | 64 | 245 | 3.0 | 3.0 | 0.00 | 0.20 | 0.00 | 94 | 1012.7 |
| 20260509122020 | 64 | 261 | 2.0 | 3.0 | 0.00 | 0.20 | 0.00 | 95 | 1012.7 |
| 20260509121819 | 63 | 273 | 3.0 | 4.0 | 0.00 | 0.20 | 0.00 | 95 | 1012.5 |
| 20260509121617 | 63 | 268 | 4.0 | 4.0 | 0.00 | 0.20 | 0.00 | 95 | 1012.7 |
| 20260509121416 | 63 | 238 | 3.0 | 4.0 | 0.00 | 0.20 | 0.00 | 95 | 1012.7 |
| 20260509121249 | 63 | 206 | 5.0 | 6.0 | 0.00 | 0.20 | 0.00 | 95 | 1012.7 |
| 20260509121023 | 63 | 206 | 6.0 | 7.0 | 0.00 | 0.20 | 0.00 | 95 | 1012.5 |
| 20260509120942 | 63 | 208 | 4.0 | 6.0 | 0.00 | 0.20 | 0.00 | 95 | 1012.5 |
| 20260509120640 | 63 | 245 | 4.0 | 6.0 | 0.00 | 0.20 | 0.00 | 95 | 1012.4 |
| 20260509120419 | 63 | 250 | 3.0 | 4.0 | 0.00 | 0.20 | 0.00 | 95 | 1012.3 |
| 20260509120300 | 63 | 274 | 4.0 | 6.0 | 0.00 | 0.20 | 0.00 | 95 | 1012.3 |
| 20260509120036 | 63 | 285 | 4.0 | 5.0 | 0.00 | 0.20 | 0.00 | 96 | 1012.4 |
| 20260509115826 | 63 | 260 | 4.0 | 5.0 | 0.00 | 0.20 | 0.00 | 96 | 1012.5 |
| 20260509115623 | 63 | 247 | 5.0 | 7.0 | 0.00 | 0.20 | 0.00 | 96 | 1012.5 |
| 20260509115421 | 63 | 238 | 4.0 | 6.0 | 0.00 | 0.20 | 0.00 | 96 | 1012.6 |
| 20260509115240 | 63 | 240 | 5.0 | 7.0 | 0.00 | 0.20 | 0.00 | 96 | 1012.2 |
| 20260509115021 | 63 | 254 | 5.0 | 6.0 | 0.00 | 0.20 | 0.00 | 96 | 1012.2 |
| 20260509114817 | 63 | 257 | 5.0 | 6.0 | 0.00 | 0.20 | 0.00 | 96 | 1012.3 |
| 20260509114616 | 63 | 268 | 6.0 | 8.0 | 0.00 | 0.20 | 0.00 | 96 | 1012.3 |
| 20260509114427 | 63 | 263 | 7.0 | 9.0 | 0.00 | 0.20 | 0.00 | 96 | 1012.2 |
| 20260509114223 | 63 | 252 | 6.0 | 9.0 | 0.00 | 0.20 | 0.00 | 97 | 1012.3 |
| 20260509114022 | 63 | 252 | 6.0 | 7.0 | 0.00 | 0.20 | 0.00 | 97 | 1012.4 |
| 20260509113820 | 63 | 250 | 4.0 | 5.0 | 0.00 | 0.20 | 0.00 | 97 | 1012.2 |
| 20260509113623 | 63 | 238 | 4.0 | 5.0 | 0.00 | 0.20 | 0.00 | 97 | 1012.3 |
| 20260509113417 | 63 | 224 | 3.0 | 4.0 | 0.00 | 0.20 | 0.00 | 97 | 1012.3 |
| 20260509113216 | 63 | 245 | 3.0 | 4.0 | 0.00 | 0.20 | 0.00 | 97 | 1012.2 |
| 20260509113027 | 63 | 234 | 4.0 | 6.0 | 0.00 | 0.20 | 0.00 | 97 | 1012.1 |
| 20260509112823 | 63 | 236 | 5.0 | 7.0 | 0.00 | 0.20 | 0.00 | 97 | 1012.2 |
| 20260509112621 | 63 | 228 | 5.0 | 6.0 | 0.00 | 0.20 | 0.00 | 97 | 1012.2 |
| 20260509112440 | 63 | 226 | 6.0 | 7.0 | 0.00 | 0.20 | 0.00 | 97 | 1011.9 |
| 20260509112221 | 63 | 239 | 6.0 | 8.0 | 0.00 | 0.20 | 0.00 | 98 | 1012.1 |
| 20260509112019 | 63 | 256 | 6.0 | 7.0 | 0.00 | 0.20 | 0.00 | 98 | 1011.9 |
| 20260509111816 | 63 | 255 | 7.0 | 9.0 | 0.00 | 0.20 | 0.00 | 98 | 1011.8 |
| 20260509111624 | 63 | 249 | 8.0 | 10.0 | 0.00 | 0.20 | 0.00 | 98 | 1011.8 |
| 20260509111423 | 63 | 231 | 5.0 | 6.0 | 0.00 | 0.21 | 0.00 | 98 | 1012.0 |
| 20260509111222 | 63 | 221 | 5.0 | 7.0 | 0.00 | 0.21 | 0.00 | 98 | 1012.0 |
| 20260509111020 | 63 | 237 | 5.0 | 6.0 | 0.00 | 0.21 | 0.00 | 98 | 1011.8 |
| 20260509110819 | 63 | 268 | 4.0 | 5.0 | 0.00 | 0.22 | 0.00 | 98 | 1011.6 |
| 20260509110617 | 64 | 275 | 3.0 | 4.0 | 0.00 | 0.22 | 0.00 | 98 | 1011.5 |
| 20260509110415 | 64 | 308 | 4.0 | 4.0 | 0.00 | 0.22 | 0.00 | 98 | 1011.4 |
| 20260509110224 | 64 | 326 | 3.0 | 4.0 | 0.00 | 0.22 | 0.00 | 98 | 1011.4 |
| 20260509110023 | 64 | 345 | 3.0 | 4.0 | 0.00 | 0.22 | 0.00 | 98 | 1011.3 |
| 20260509105841 | 64 | 345 | 3.0 | 5.0 | 0.00 | 0.22 | 0.00 | 97 | 1011.3 |
| 20260509105620 | 64 | 356 | 3.0 | 4.0 | 0.00 | 0.22 | 0.00 | 97 | 1011.3 |
| 20260509105418 | 64 | 354 | 3.0 | 4.0 | 0.00 | 0.22 | 0.00 | 97 | 1011.3 |
| 20260509105221 | 64 | 12 | 4.0 | 5.0 | 0.00 | 0.22 | 0.00 | 97 | 1011.3 |
| 20260509105019 | 64 | 24 | 4.0 | 5.0 | 0.00 | 0.22 | 0.00 | 97 | 1011.4 |
| 20260509104845 | 65 | 35 | 4.0 | 4.0 | 0.00 | 0.22 | 0.00 | 97 | 1011.3 |
| 20260509104643 | 65 | 33 | 4.0 | 5.0 | 0.00 | 0.22 | 0.00 | 97 | 1011.3 |
| 20260509104421 | 65 | 43 | 4.0 | 5.0 | 0.00 | 0.22 | 0.00 | 97 | 1011.4 |
| 20260509104220 | 65 | 31 | 3.0 | 4.0 | 0.00 | 0.22 | 0.00 | 97 | 1011.2 |
| 20260509104020 | 65 | 31 | 4.0 | 5.0 | 0.00 | 0.22 | 0.00 | 97 | 1011.2 |
| 20260509103837 | 65 | 33 | 5.0 | 7.0 | 0.00 | 0.22 | 0.00 | 97 | 1011.3 |
| 20260509103616 | 65 | 32 | 7.0 | 8.0 | 0.00 | 0.22 | 0.00 | 97 | 1011.3 |
| 20260509103424 | 65 | 32 | 7.0 | 9.0 | 0.00 | 0.22 | 0.00 | 97 | 1011.4 |
| 20260509103223 | 65 | 27 | 7.0 | 9.0 | 0.00 | 0.22 | 0.00 | 97 | 1011.2 |
| 20260509103021 | 65 | 30 | 7.0 | 9.0 | 0.00 | 0.22 | 0.00 | 97 | 1011.2 |
| 20260509102820 | 65 | 31 | 7.0 | 9.0 | 0.00 | 0.22 | 0.00 | 97 | 1011.1 |
| 20260509102622 | 65 | 27 | 8.0 | 12.0 | 0.00 | 0.22 | 0.00 | 97 | 1011.2 |
| 20260509102417 | 65 | 13 | 7.0 | 10.0 | 0.00 | 0.22 | 0.00 | 97 | 1011.3 |
| 20260509102216 | 65 | 15 | 6.0 | 8.0 | 0.00 | 0.22 | 0.00 | 97 | 1011.2 |
| 20260509102026 | 65 | 12 | 5.0 | 7.0 | 0.00 | 0.22 | 0.00 | 97 | 1011.2 |
| 20260509101823 | 65 | 8 | 5.0 | 6.0 | 0.00 | 0.22 | 0.00 | 97 | 1011.2 |
| 20260509101641 | 65 | 15 | 5.0 | 7.0 | 0.00 | 0.22 | 0.00 | 97 | 1011.2 |
| 20260509101420 | 65 | 8 | 4.0 | 6.0 | 0.00 | 0.22 | 0.00 | 96 | 1011.1 |
| 20260509101218 | 65 | 19 | 7.0 | 10.0 | 0.00 | 0.22 | 0.00 | 96 | 1011.2 |
| 20260509101040 | 65 | 24 | 7.0 | 11.0 | 0.00 | 0.22 | 0.00 | 96 | 1011.1 |
| 20260509100815 | 65 | 26 | 6.0 | 9.0 | 0.00 | 0.22 | 0.00 | 96 | 1011.1 |
| 20260509100624 | 66 | 20 | 7.0 | 10.0 | 0.00 | 0.22 | 0.00 | 96 | 1011.1 |
| 20260509100423 | 66 | 21 | 7.0 | 11.0 | 0.00 | 0.22 | 0.00 | 96 | 1011.0 |
| 20260509100221 | 66 | 21 | 7.0 | 10.0 | 0.00 | 0.22 | 0.00 | 96 | 1010.8 |
| 20260509100020 | 66 | 20 | 7.0 | 10.0 | 0.00 | 0.22 | 0.00 | 96 | 1010.9 |
| 20260509095819 | 66 | 20 | 7.0 | 10.0 | 0.00 | 0.22 | 0.00 | 96 | 1010.8 |
| 20260509095617 | 66 | 20 | 8.0 | 11.0 | 0.00 | 0.22 | 0.00 | 96 | 1010.7 |
| 20260509095438 | 66 | 24 | 10.0 | 14.0 | 0.00 | 0.22 | 0.00 | 96 | 1010.6 |
| 20260509095224 | 66 | 21 | 9.0 | 11.0 | 0.00 | 0.22 | 0.00 | 96 | 1010.7 |
| 20260509095025 | 66 | 24 | 11.0 | 15.0 | 0.00 | 0.22 | 0.00 | 96 | 1010.6 |
| 20260509094821 | 66 | 29 | 9.0 | 14.0 | 0.00 | 0.22 | 0.00 | 96 | 1010.6 |
| 20260509094620 | 66 | 24 | 9.0 | 12.0 | 0.00 | 0.22 | 0.00 | 96 | 1010.4 |
| 20260509094418 | 66 | 26 | 9.0 | 11.0 | 0.00 | 0.22 | 0.00 | 96 | 1010.7 |
| 20260509094249 | 66 | 25 | 10.0 | 11.0 | 0.00 | 0.22 | 0.00 | 96 | 1010.3 |
| 20260509093824 | 66 | 20 | 11.0 | 14.0 | 0.00 | 0.22 | 0.00 | 96 | 1010.4 |
| 20260509093622 | 66 | 16 | 7.0 | 13.0 | 0.00 | 0.22 | 0.00 | 96 | 1010.3 |
| 20260509093421 | 66 | 13 | 6.0 | 8.0 | 0.00 | 0.22 | 0.00 | 96 | 1010.4 |
| 20260509093220 | 67 | 12 | 7.0 | 9.0 | 0.00 | 0.22 | 0.00 | 96 | 1010.4 |
| 20260509093018 | 67 | 12 | 9.0 | 11.0 | 0.00 | 0.22 | 0.00 | 96 | 1010.5 |
| 20260509092817 | 67 | 19 | 8.0 | 11.0 | 0.00 | 0.22 | 0.00 | 96 | 1010.5 |
| 20260509092625 | 67 | 14 | 6.0 | 9.0 | 0.00 | 0.22 | 0.00 | 96 | 1010.4 |
| 20260509092424 | 67 | 10 | 5.0 | 7.0 | 0.00 | 0.22 | 0.00 | 96 | 1010.4 |
| 20260509092243 | 67 | 4 | 5.0 | 8.0 | 0.00 | 0.22 | 0.00 | 96 | 1010.3 |
| 20260509092021 | 67 | 15 | 6.0 | 7.0 | 0.00 | 0.22 | 0.00 | 96 | 1010.4 |
| 20260509091820 | 67 | 16 | 6.0 | 8.0 | 0.00 | 0.22 | 0.00 | 96 | 1010.4 |
| 20260509091618 | 67 | 10 | 4.0 | 6.0 | 0.00 | 0.22 | 0.00 | 96 | 1010.5 |
| 20260509091417 | 67 | 13 | 7.0 | 9.0 | 0.00 | 0.22 | 0.00 | 96 | 1010.3 |
| 20260509091217 | 67 | 12 | 6.0 | 9.0 | 0.00 | 0.22 | 0.00 | 96 | 1010.3 |
| 20260509091025 | 67 | 6 | 6.0 | 10.0 | 0.00 | 0.22 | 0.00 | 95 | 1010.3 |
| 20260509090823 | 67 | 11 | 5.0 | 8.0 | 0.00 | 0.22 | 0.00 | 95 | 1010.4 |
| 20260509090621 | 67 | 15 | 6.0 | 8.0 | 0.00 | 0.22 | 0.00 | 95 | 1010.2 |
| 20260509090420 | 67 | 12 | 7.0 | 10.0 | 0.00 | 0.22 | 0.00 | 95 | 1010.4 |
| 20260509090218 | 67 | 14 | 6.0 | 9.0 | 0.00 | 0.22 | 0.00 | 95 | 1010.3 |
| 20260509090017 | 67 | 9 | 6.0 | 9.0 | 0.00 | 0.22 | 0.00 | 95 | 1010.3 |
| 20260509085847 | 67 | 19 | 6.0 | 10.0 | 0.00 | 0.22 | 0.00 | 95 | 1010.2 |
| 20260509085624 | 67 | 21 | 7.0 | 10.0 | 0.00 | 0.22 | 0.00 | 95 | 1010.4 |
| 20260509085425 | 67 | 16 | 7.0 | 9.0 | 0.00 | 0.22 | 0.00 | 95 | 1010.5 |
| 20260509085221 | 67 | 6 | 6.0 | 9.0 | 0.00 | 0.22 | 0.00 | 95 | 1010.3 |
| 20260509085022 | 67 | 12 | 7.0 | 9.0 | 0.00 | 0.22 | 0.00 | 95 | 1010.3 |
| 20260509084818 | 67 | 25 | 9.0 | 14.0 | 0.00 | 0.22 | 0.00 | 95 | 1010.4 |
| 20260509084617 | 67 | 13 | 7.0 | 12.0 | 0.00 | 0.22 | 0.00 | 95 | 1010.4 |
| 20260509084425 | 67 | 17 | 9.0 | 11.0 | 0.00 | 0.22 | 0.00 | 95 | 1010.4 |
| 20260509084224 | 67 | 27 | 10.0 | 14.0 | 0.00 | 0.22 | 0.00 | 95 | 1010.2 |
| 20260509084022 | 67 | 18 | 10.0 | 16.0 | 0.00 | 0.22 | 0.00 | 94 | 1010.4 |
| 20260509083821 | 67 | 32 | 12.0 | 17.0 | 0.00 | 0.22 | 0.00 | 94 | 1010.4 |
| 20260509083620 | 68 | 26 | 14.0 | 19.0 | 0.00 | 0.22 | 0.00 | 94 | 1010.6 |
| 20260509083418 | 68 | 11 | 9.0 | 15.0 | 0.00 | 0.22 | 0.00 | 94 | 1010.5 |
| 20260509083216 | 68 | 19 | 9.0 | 12.0 | 0.00 | 0.22 | 0.00 | 94 | 1010.6 |
| 20260509083045 | 68 | 14 | 10.0 | 14.0 | 0.00 | 0.22 | 0.00 | 94 | 1010.5 |
| 20260509082824 | 68 | 8 | 8.0 | 12.0 | 0.00 | 0.22 | 0.00 | 94 | 1010.5 |
| 20260509082625 | 68 | 9 | 9.0 | 13.0 | 0.00 | 0.22 | 0.00 | 93 | 1010.6 |
| 20260509082423 | 68 | 8 | 10.0 | 15.0 | 0.00 | 0.22 | 0.00 | 93 | 1010.6 |
| 20260509082220 | 68 | 2 | 6.0 | 11.0 | 0.00 | 0.22 | 0.00 | 93 | 1010.5 |
| 20260509082018 | 68 | 12 | 9.0 | 13.0 | 0.00 | 0.22 | 0.00 | 92 | 1010.6 |
| 20260509081817 | 68 | 13 | 11.0 | 15.0 | 0.00 | 0.22 | 0.00 | 92 | 1010.4 |
| 20260509081625 | 69 | 14 | 11.0 | 18.0 | 0.00 | 0.22 | 0.00 | 92 | 1010.4 |
| 20260509081444 | 69 | 14 | 13.0 | 19.0 | 0.00 | 0.22 | 0.00 | 92 | 1010.4 |
| 20260509081222 | 68 | 7 | 10.0 | 13.0 | 0.00 | 0.22 | 0.00 | 92 | 1010.4 |
| 20260509081021 | 69 | 16 | 9.0 | 18.0 | 0.00 | 0.22 | 0.00 | 91 | 1010.5 |
| 20260509080839 | 69 | 3 | 11.0 | 19.0 | 0.00 | 0.22 | 0.00 | 91 | 1010.3 |
| 20260509080618 | 69 | 8 | 13.0 | 19.0 | 0.00 | 0.22 | 0.00 | 91 | 1010.3 |
| 20260509080416 | 69 | 15 | 11.0 | 15.0 | 0.00 | 0.22 | 0.00 | 90 | 1010.3 |
| 20260509080225 | 69 | 12 | 10.0 | 16.0 | 0.00 | 0.22 | 0.00 | 90 | 1010.5 |
| 20260509080024 | 69 | 358 | 7.0 | 15.0 | 0.00 | 0.22 | 0.00 | 90 | 1010.4 |
| 20260509075822 | 69 | 327 | 7.0 | 11.0 | 0.00 | 0.22 | 0.00 | 90 | 1010.3 |
| 20260509075621 | 69 | 346 | 8.0 | 15.0 | 0.00 | 0.22 | 0.00 | 89 | 1010.3 |
| 20260509075420 | 69 | 329 | 11.0 | 19.0 | 0.00 | 0.22 | 0.00 | 88 | 1010.3 |
| 20260509075220 | 69 | 359 | 10.0 | 15.0 | 0.00 | 0.22 | 0.00 | 87 | 1010.4 |
| 20260509075016 | 70 | 335 | 10.0 | 19.0 | 0.00 | 0.22 | 0.00 | 86 | 1010.2 |
| 20260509074825 | 70 | 326 | 9.0 | 15.0 | 0.00 | 0.22 | 0.00 | 85 | 1010.3 |
| 20260509074623 | 70 | 332 | 8.0 | 15.0 | 0.00 | 0.22 | 0.00 | 84 | 1010.3 |
| 20260509074424 | 71 | 322 | 14.0 | 21.0 | 0.00 | 0.22 | 0.00 | 81 | 1010.4 |
| 20260509074222 | 71 | 334 | 10.0 | 18.0 | 0.00 | 0.22 | 0.00 | 79 | 1010.2 |
| 20260509074019 | 71 | 333 | 9.0 | 14.0 | 0.00 | 0.22 | 0.00 | 77 | 1010.1 |
| 20260509073819 | 71 | 336 | 7.0 | 13.0 | 0.00 | 0.22 | 0.00 | 80 | 1010.0 |
| 20260509073636 | 71 | 318 | 10.0 | 19.0 | 0.00 | 0.22 | 0.00 | 82 | 1009.7 |
| 20260509073425 | 70 | 295 | 16.0 | 21.0 | 0.00 | 0.22 | 0.00 | 81 | 1009.7 |
| 20260509073226 | 71 | 313 | 16.0 | 18.0 | 0.00 | 0.22 | 0.00 | 82 | 1009.9 |
| 20260509073022 | 70 | 288 | 13.0 | 19.0 | 0.00 | 0.22 | 0.00 | 83 | 1009.7 |
| 20260509072820 | 72 | 304 | 27.0 | 35.0 | 0.00 | 0.22 | 0.00 | 80 | 1009.3 |
| 20260509072621 | 74 | 288 | 20.0 | 25.0 | 0.00 | 0.22 | 0.00 | 67 | 1008.6 |
| 20260509072418 | 71 | 213 | 11.0 | 13.0 | 0.00 | 0.22 | 0.00 | 73 | 1008.3 |
| 20260509072219 | 71 | 311 | 8.0 | 14.0 | 0.00 | 0.22 | 0.00 | 82 | 1008.6 |
| 20260509072026 | 71 | 232 | 12.0 | 17.0 | 0.00 | 0.22 | 0.00 | 79 | 1008.3 |
| 20260509071823 | 72 | 241 | 11.0 | 17.0 | 0.00 | 0.22 | 0.00 | 80 | 1008.2 |
| 20260509071642 | 73 | 231 | 17.0 | 25.0 | 0.00 | 0.22 | 0.00 | 74 | 1008.3 |
| 20260509071421 | 69 | 212 | 12.0 | 19.0 | 0.00 | 0.22 | 0.00 | 84 | 1008.5 |
| 20260509071219 | 68 | 310 | 7.0 | 13.0 | 0.00 | 0.22 | 0.00 | 92 | 1008.7 |
| 20260509071037 | 69 | 106 | 10.0 | 18.0 | 0.00 | 0.22 | 0.00 | 92 | 1008.6 |
| 20260509070820 | 68 | 153 | 16.0 | 20.0 | 0.00 | 0.22 | 0.00 | 93 | 1008.5 |
| 20260509070625 | 69 | 179 | 15.0 | 19.0 | 0.00 | 0.22 | 0.00 | 91 | 1008.8 |
| 20260509070423 | 69 | 204 | 8.0 | 10.0 | 0.00 | 0.22 | 0.00 | 92 | 1009.7 |
| 20260509070222 | 69 | 199 | 8.0 | 12.0 | 0.00 | 0.22 | 0.00 | 92 | 1010.0 |
| 20260509070020 | 69 | 215 | 9.0 | 11.0 | 0.00 | 0.22 | 0.00 | 91 | 1010.2 |
| 20260509065821 | 69 | 212 | 12.0 | 17.0 | 0.00 | 0.22 | 0.00 | 91 | 1010.4 |
| 20260509065620 | 69 | 217 | 11.0 | 13.0 | 0.00 | 0.22 | 0.00 | 92 | 1010.2 |
| 20260509065436 | 69 | 207 | 17.0 | 21.0 | 0.00 | 0.22 | 0.00 | 92 | 1010.2 |
| 20260509065225 | 69 | 214 | 12.0 | 15.0 | 0.00 | 0.22 | 0.00 | 93 | 1010.5 |
| 20260509065023 | 69 | 231 | 11.0 | 16.0 | 0.00 | 0.22 | 0.00 | 93 | 1010.6 |
| 20260509064822 | 69 | 245 | 12.0 | 18.0 | 0.00 | 0.22 | 0.00 | 92 | 1010.5 |
| 20260509064620 | 69 | 230 | 12.0 | 18.0 | 0.00 | 0.22 | 0.00 | 92 | 1010.6 |
| 20260509064419 | 69 | 217 | 14.0 | 18.0 | 0.00 | 0.22 | 0.00 | 93 | 1010.5 |
| 20260509064218 | 69 | 216 | 12.0 | 19.0 | 0.00 | 0.22 | 0.00 | 93 | 1010.7 |
| 20260509064017 | 69 | 203 | 11.0 | 15.0 | 0.00 | 0.22 | 0.00 | 92 | 1010.8 |
| 20260509063825 | 69 | 205 | 16.0 | 21.0 | 0.00 | 0.22 | 0.00 | 92 | 1010.7 |
| 20260509063623 | 69 | 201 | 15.0 | 19.0 | 0.00 | 0.22 | 0.00 | 92 | 1010.8 |
| 20260509063442 | 69 | 209 | 13.0 | 17.0 | 0.00 | 0.22 | 0.00 | 92 | 1010.9 |
| 20260509063221 | 69 | 202 | 13.0 | 18.0 | 0.00 | 0.22 | 0.00 | 92 | 1010.8 |
| 20260509063019 | 69 | 215 | 16.0 | 21.0 | 0.00 | 0.22 | 0.00 | 92 | 1010.9 |
| 20260509062818 | 69 | 212 | 12.0 | 17.0 | 0.00 | 0.22 | 0.00 | 92 | 1010.8 |
| 20260509062616 | 69 | 226 | 12.0 | 18.0 | 0.00 | 0.22 | 0.00 | 92 | 1011.1 |
| 20260509062425 | 69 | 205 | 15.0 | 22.0 | 0.00 | 0.22 | 0.00 | 93 | 1011.2 |
| 20260509062226 | 69 | 204 | 12.0 | 16.0 | 0.00 | 0.22 | 0.00 | 92 | 1011.2 |
| 20260509062024 | 69 | 202 | 11.0 | 15.0 | 0.00 | 0.22 | 0.00 | 93 | 1011.3 |
| 20260509061821 | 69 | 201 | 12.0 | 17.0 | 0.00 | 0.22 | 0.00 | 92 | 1011.3 |
| 20260509061619 | 69 | 204 | 16.0 | 21.0 | 0.00 | 0.22 | 0.00 | 93 | 1011.3 |
| 20260509061417 | 68 | 199 | 15.0 | 19.0 | 0.00 | 0.22 | 0.00 | 93 | 1011.3 |
| 20260509061216 | 68 | 207 | 12.0 | 18.0 | 0.00 | 0.22 | 0.00 | 93 | 1011.6 |
| 20260509061025 | 68 | 205 | 15.0 | 19.0 | 0.00 | 0.22 | 0.00 | 93 | 1011.6 |
| 20260509060823 | 68 | 209 | 16.0 | 21.0 | 0.00 | 0.22 | 0.00 | 93 | 1011.8 |
| 20260509060626 | 68 | 201 | 17.0 | 20.0 | 0.00 | 0.22 | 0.00 | 93 | 1011.8 |
| 20260509060420 | 68 | 203 | 17.0 | 20.0 | 0.00 | 0.22 | 0.00 | 93 | 1011.8 |
| 20260509060219 | 68 | 209 | 12.0 | 16.0 | 0.00 | 0.22 | 0.00 | 93 | 1011.9 |
| 20260509060018 | 68 | 205 | 14.0 | 17.0 | 0.00 | 0.22 | 0.00 | 93 | 1011.9 |
| 20260509055856 | 68 | 210 | 15.0 | 17.0 | 0.00 | 0.22 | 0.00 | 93 | 1011.9 |
| 20260509055625 | 68 | 228 | 13.0 | 17.0 | 0.00 | 0.22 | 0.00 | 93 | 1012.3 |
| 20260509055424 | 68 | 227 | 12.0 | 14.0 | 0.00 | 0.22 | 0.00 | 93 | 1012.3 |
| 20260509055222 | 68 | 228 | 15.0 | 20.0 | 0.00 | 0.22 | 0.00 | 93 | 1012.2 |
| 20260509055021 | 68 | 231 | 13.0 | 16.0 | 0.00 | 0.22 | 0.00 | 93 | 1012.2 |
| 20260509054839 | 68 | 224 | 12.0 | 15.0 | 0.00 | 0.22 | 0.00 | 93 | 1012.4 |
| 20260509054638 | 68 | 251 | 10.0 | 12.0 | 0.00 | 0.22 | 0.00 | 93 | 1012.4 |
| 20260509054416 | 68 | 255 | 9.0 | 12.0 | 0.00 | 0.22 | 0.00 | 93 | 1012.5 |
| 20260509054225 | 68 | 239 | 7.0 | 9.0 | 0.00 | 0.22 | 0.00 | 93 | 1012.2 |
| 20260509054023 | 68 | 199 | 6.0 | 8.0 | 0.00 | 0.22 | 0.00 | 93 | 1012.2 |
| 20260509053822 | 68 | 210 | 6.0 | 9.0 | 0.00 | 0.22 | 0.00 | 93 | 1012.1 |
| 20260509053620 | 68 | 205 | 10.0 | 14.0 | 0.00 | 0.22 | 0.00 | 93 | 1012.0 |
| 20260509053419 | 68 | 202 | 13.0 | 16.0 | 0.00 | 0.22 | 0.00 | 93 | 1012.0 |
| 20260509053217 | 68 | 207 | 13.0 | 16.0 | 0.00 | 0.22 | 0.00 | 93 | 1011.8 |
| 20260509053036 | 68 | 207 | 11.0 | 15.0 | 0.00 | 0.22 | 0.00 | 93 | 1011.9 |
| 20260509052825 | 68 | 221 | 8.0 | 10.0 | 0.00 | 0.22 | 0.00 | 93 | 1011.9 |
| 20260509052625 | 68 | 234 | 10.0 | 12.0 | 0.00 | 0.22 | 0.00 | 93 | 1012.0 |
| 20260509052422 | 68 | 206 | 13.0 | 16.0 | 0.00 | 0.22 | 0.00 | 93 | 1011.4 |
| 20260509052223 | 67 | 207 | 13.0 | 18.0 | 0.00 | 0.22 | 0.00 | 93 | 1011.5 |
| 20260509052019 | 67 | 203 | 13.0 | 17.0 | 0.00 | 0.22 | 0.00 | 93 | 1011.7 |
| 20260509051817 | 67 | 202 | 13.0 | 16.0 | 0.00 | 0.22 | 0.00 | 93 | 1011.9 |
| 20260509051616 | 68 | 215 | 12.0 | 16.0 | 0.00 | 0.22 | 0.00 | 93 | 1012.0 |
| 20260509051424 | 68 | 218 | 12.0 | 14.0 | 0.00 | 0.22 | 0.00 | 93 | 1012.1 |
| 20260509051223 | 68 | 205 | 11.0 | 14.0 | 0.00 | 0.22 | 0.00 | 93 | 1012.2 |
| 20260509051022 | 67 | 210 | 9.0 | 12.0 | 0.00 | 0.22 | 0.00 | 93 | 1012.3 |
| 20260509050840 | 67 | 231 | 9.0 | 13.0 | 0.00 | 0.22 | 0.00 | 93 | 1012.6 |
| 20260509050619 | 67 | 226 | 10.0 | 13.0 | 0.00 | 0.22 | 0.00 | 94 | 1012.2 |
| 20260509050418 | 67 | 195 | 11.0 | 15.0 | 0.00 | 0.22 | 0.00 | 94 | 1012.2 |
| 20260509050219 | 67 | 181 | 9.0 | 11.0 | 0.00 | 0.22 | 0.00 | 93 | 1012.0 |
| 20260509050025 | 67 | 185 | 7.0 | 8.0 | 0.00 | 0.22 | 0.22 | 93 | 1012.4 |
| 20260509045823 | 67 | 220 | 6.0 | 8.0 | 0.00 | 0.22 | 0.22 | 93 | 1012.8 |
| 20260509045622 | 67 | 236 | 7.0 | 9.0 | 0.00 | 0.22 | 0.22 | 93 | 1012.7 |
| 20260509045423 | 67 | 226 | 8.0 | 10.0 | 0.00 | 0.22 | 0.22 | 93 | 1012.5 |
| 20260509045219 | 67 | 209 | 6.0 | 8.0 | 0.00 | 0.22 | 0.22 | 93 | 1012.5 |
| 20260509045017 | 67 | 204 | 6.0 | 7.0 | 0.00 | 0.22 | 0.22 | 93 | 1012.4 |
| 20260509044816 | 67 | 207 | 6.0 | 7.0 | 0.00 | 0.22 | 0.22 | 93 | 1012.3 |
| 20260509044624 | 67 | 179 | 5.0 | 6.0 | 0.00 | 0.22 | 0.22 | 93 | 1012.4 |
| 20260509044443 | 67 | 169 | 7.0 | 8.0 | 0.00 | 0.22 | 0.22 | 93 | 1012.2 |
| 20260509044222 | 67 | 177 | 7.0 | 9.0 | 0.00 | 0.22 | 0.22 | 93 | 1012.4 |
| 20260509044040 | 67 | 176 | 7.0 | 9.0 | 0.00 | 0.22 | 0.22 | 93 | 1012.4 |
| 20260509043819 | 68 | 171 | 8.0 | 10.0 | 0.00 | 0.22 | 0.22 | 92 | 1012.1 |
| 20260509043618 | 68 | 171 | 10.0 | 11.0 | 0.00 | 0.22 | 0.22 | 91 | 1012.2 |
| 20260509043416 | 68 | 173 | 9.0 | 10.0 | 0.00 | 0.22 | 0.22 | 91 | 1012.5 |
| 20260509043225 | 68 | 182 | 8.0 | 10.0 | 0.00 | 0.22 | 0.22 | 92 | 1012.9 |
| 20260509043023 | 68 | 194 | 7.0 | 10.0 | 0.00 | 0.22 | 0.22 | 91 | 1012.9 |
| 20260509042822 | 68 | 197 | 7.0 | 9.0 | 0.00 | 0.22 | 0.22 | 91 | 1013.1 |
| 20260509042621 | 69 | 199 | 7.0 | 9.0 | 0.00 | 0.22 | 0.22 | 90 | 1013.3 |
| 20260509042419 | 69 | 226 | 4.0 | 5.0 | 0.00 | 0.22 | 0.22 | 90 | 1013.3 |
| 20260509042217 | 69 | 235 | 4.0 | 5.0 | 0.00 | 0.22 | 0.22 | 90 | 1013.6 |
| 20260509042036 | 69 | 245 | 6.0 | 8.0 | 0.00 | 0.22 | 0.22 | 90 | 1013.7 |
| 20260509041825 | 69 | 242 | 5.0 | 6.0 | 0.00 | 0.22 | 0.22 | 90 | 1013.7 |
| 20260509041644 | 69 | 261 | 6.0 | 6.0 | 0.00 | 0.22 | 0.22 | 89 | 1013.8 |
| 20260509041422 | 69 | 309 | 3.0 | 4.0 | 0.00 | 0.22 | 0.22 | 89 | 1013.7 |
| 20260509041220 | 69 | 329 | 6.0 | 10.0 | 0.00 | 0.22 | 0.22 | 90 | 1014.0 |
| 20260509041019 | 69 | 345 | 7.0 | 11.0 | 0.00 | 0.22 | 0.22 | 90 | 1014.0 |
| 20260509040858 | 69 | 346 | 5.0 | 11.0 | 0.00 | 0.22 | 0.22 | 90 | 1014.0 |
| 20260509040616 | 68 | 346 | 10.0 | 18.0 | 0.00 | 0.22 | 0.22 | 91 | 1014.3 |
| 20260509040425 | 68 | 352 | 10.0 | 23.0 | 0.00 | 0.22 | 0.22 | 92 | 1014.2 |
| 20260509040224 | 68 | 331 | 11.0 | 19.0 | 0.00 | 0.22 | 0.22 | 92 | 1014.1 |
| 20260509040022 | 67 | 326 | 16.0 | 23.0 | 0.00 | 0.22 | 0.22 | 92 | 1014.0 |
| 20260509035820 | 67 | 321 | 18.0 | 25.0 | 0.00 | 0.22 | 0.22 | 93 | 1013.7 |
| 20260509035619 | 67 | 326 | 13.0 | 18.0 | 0.00 | 0.22 | 0.22 | 93 | 1013.1 |
| 20260509035420 | 67 | 325 | 9.0 | 11.0 | 0.00 | 0.22 | 0.22 | 93 | 1012.6 |
| 20260509035216 | 67 | 334 | 3.0 | 5.0 | 0.00 | 0.22 | 0.22 | 93 | 1012.4 |
| 20260509035025 | 67 | 5 | 2.0 | 3.0 | 0.00 | 0.22 | 0.22 | 93 | 1012.1 |
| 20260509034823 | 67 | 23 | 3.0 | 4.0 | 0.00 | 0.22 | 0.22 | 92 | 1012.3 |
| 20260509034622 | 67 | 27 | 4.0 | 4.0 | 0.00 | 0.22 | 0.22 | 92 | 1012.1 |
| 20260509034421 | 67 | 39 | 3.0 | 3.0 | 0.00 | 0.22 | 0.22 | 92 | 1012.1 |
| 20260509034219 | 67 | 59 | 3.0 | 3.0 | 0.00 | 0.22 | 0.22 | 92 | 1012.1 |
| 20260509034018 | 67 | 77 | 3.0 | 4.0 | 0.00 | 0.22 | 0.22 | 91 | 1011.9 |
| 20260509033836 | 67 | 77 | 3.0 | 4.0 | 0.00 | 0.22 | 0.22 | 91 | 1011.9 |
| 20260509033644 | 67 | 84 | 3.0 | 4.0 | 0.00 | 0.22 | 0.22 | 91 | 1011.6 |
| 20260509033443 | 68 | 104 | 3.0 | 5.0 | 0.00 | 0.22 | 0.22 | 91 | 1011.6 |
| 20260509033242 | 67 | 139 | 3.0 | 4.0 | 0.00 | 0.22 | 0.22 | 91 | 1011.6 |
| 20260509033020 | 67 | 158 | 4.0 | 4.0 | 0.00 | 0.22 | 0.22 | 91 | 1011.5 |
| 20260509032819 | 68 | 160 | 3.0 | 4.0 | 0.00 | 0.22 | 0.22 | 91 | 1011.6 |
| 20260509032617 | 68 | 153 | 4.0 | 6.0 | 0.00 | 0.22 | 0.22 | 91 | 1011.4 |
| 20260509032416 | 68 | 137 | 5.0 | 8.0 | 0.00 | 0.22 | 0.22 | 90 | 1011.5 |
| 20260509032245 | 68 | 121 | 5.0 | 7.0 | 0.00 | 0.22 | 0.22 | 90 | 1011.5 |
| 20260509032023 | 68 | 113 | 6.0 | 6.0 | 0.00 | 0.22 | 0.22 | 90 | 1011.3 |
| 20260509031822 | 68 | 116 | 6.0 | 8.0 | 0.00 | 0.22 | 0.22 | 90 | 1011.4 |
| 20260509031620 | 68 | 114 | 6.0 | 9.0 | 0.00 | 0.22 | 0.22 | 90 | 1011.3 |
| 20260509031419 | 68 | 108 | 4.0 | 7.0 | 0.00 | 0.22 | 0.22 | 90 | 1011.4 |
| 20260509031217 | 68 | 109 | 7.0 | 9.0 | 0.00 | 0.22 | 0.22 | 90 | 1011.3 |
| 20260509031016 | 68 | 104 | 4.0 | 6.0 | 0.00 | 0.22 | 0.22 | 90 | 1011.3 |
| 20260509030824 | 68 | 110 | 7.0 | 10.0 | 0.00 | 0.22 | 0.22 | 90 | 1011.4 |
| 20260509030625 | 68 | 126 | 6.0 | 8.0 | 0.00 | 0.22 | 0.22 | 89 | 1011.3 |
| 20260509030502 | 68 | 142 | 7.0 | 11.0 | 0.00 | 0.22 | 0.22 | 90 | 1011.3 |
| 20260509030220 | 68 | 151 | 7.0 | 9.0 | 0.00 | 0.22 | 0.22 | 90 | 1011.2 |
| 20260509030018 | 68 | 154 | 6.0 | 9.0 | 0.00 | 0.22 | 0.22 | 90 | 1011.1 |
| 20260509025817 | 68 | 161 | 8.0 | 11.0 | 0.00 | 0.22 | 0.22 | 90 | 1011.0 |
| 20260509025615 | 68 | 163 | 8.0 | 11.0 | 0.00 | 0.22 | 0.22 | 90 | 1010.9 |
| 20260509025424 | 68 | 159 | 7.0 | 10.0 | 0.00 | 0.22 | 0.22 | 89 | 1011.3 |
| 20260509025223 | 69 | 148 | 8.0 | 12.0 | 0.00 | 0.22 | 0.22 | 89 | 1010.9 |
| 20260509025022 | 68 | 139 | 7.0 | 10.0 | 0.00 | 0.22 | 0.22 | 89 | 1011.2 |
| 20260509024820 | 68 | 133 | 6.0 | 8.0 | 0.00 | 0.22 | 0.22 | 89 | 1011.1 |
| 20260509024618 | 68 | 120 | 6.0 | 8.0 | 0.00 | 0.22 | 0.22 | 89 | 1011.0 |
| 20260509024417 | 68 | 114 | 7.0 | 9.0 | 0.00 | 0.22 | 0.22 | 89 | 1011.1 |
| 20260509024225 | 68 | 110 | 7.0 | 9.0 | 0.00 | 0.22 | 0.22 | 89 | 1011.0 |
| 20260509024024 | 68 | 120 | 9.0 | 13.0 | 0.00 | 0.22 | 0.22 | 89 | 1010.8 |
| 20260509023824 | 68 | 119 | 8.0 | 11.0 | 0.00 | 0.22 | 0.22 | 89 | 1010.8 |
| 20260509023621 | 68 | 114 | 10.0 | 12.0 | 0.00 | 0.22 | 0.22 | 89 | 1010.8 |
| 20260509023420 | 69 | 114 | 9.0 | 12.0 | 0.00 | 0.22 | 0.22 | 89 | 1010.9 |
| 20260509023218 | 69 | 114 | 8.0 | 10.0 | 0.00 | 0.22 | 0.22 | 89 | 1011.0 |
| 20260509023016 | 68 | 109 | 8.0 | 11.0 | 0.00 | 0.22 | 0.22 | 89 | 1010.9 |
| 20260509022825 | 68 | 102 | 4.0 | 8.0 | 0.00 | 0.22 | 0.22 | 89 | 1011.2 |
| 20260509022624 | 68 | 98 | 4.0 | 7.0 | 0.00 | 0.22 | 0.22 | 89 | 1011.2 |
| 20260509022422 | 68 | 93 | 4.0 | 6.0 | 0.00 | 0.22 | 0.22 | 89 | 1011.3 |
| 20260509022220 | 69 | 87 | 5.0 | 7.0 | 0.00 | 0.22 | 0.22 | 89 | 1011.3 |
| 20260509022019 | 69 | 67 | 6.0 | 8.0 | 0.00 | 0.22 | 0.22 | 89 | 1011.4 |
| 20260509021838 | 69 | 62 | 5.0 | 7.0 | 0.00 | 0.22 | 0.22 | 89 | 1011.7 |
| 20260509021616 | 69 | 47 | 6.0 | 9.0 | 0.00 | 0.22 | 0.22 | 88 | 1011.6 |
| 20260509021425 | 68 | 41 | 7.0 | 11.0 | 0.00 | 0.22 | 0.22 | 89 | 1011.6 |
| 20260509021224 | 68 | 37 | 7.0 | 11.0 | 0.00 | 0.22 | 0.22 | 88 | 1011.8 |
| 20260509021042 | 69 | 39 | 8.0 | 9.0 | 0.00 | 0.22 | 0.22 | 88 | 1011.5 |
| 20260509020821 | 69 | 29 | 8.0 | 11.0 | 0.00 | 0.22 | 0.22 | 88 | 1011.3 |
| 20260509020619 | 69 | 35 | 7.0 | 9.0 | 0.00 | 0.22 | 0.22 | 87 | 1011.2 |
| 20260509020418 | 69 | 31 | 7.0 | 9.0 | 0.00 | 0.22 | 0.22 | 87 | 1011.0 |
| 20260509020236 | 69 | 32 | 7.0 | 8.0 | 0.00 | 0.22 | 0.22 | 87 | 1010.7 |
| 20260509020045 | 69 | 50 | 6.0 | 8.0 | 0.00 | 0.22 | 0.22 | 87 | 1010.7 |
| 20260509015845 | 69 | 67 | 5.0 | 7.0 | 0.00 | 0.22 | 0.22 | 87 | 1010.4 |
| 20260509015642 | 69 | 86 | 4.0 | 6.0 | 0.00 | 0.22 | 0.22 | 86 | 1010.4 |
| 20260509015423 | 69 | 91 | 3.0 | 6.0 | 0.00 | 0.22 | 0.22 | 86 | 1010.2 |
| 20260509015219 | 70 | 107 | 4.0 | 7.0 | 0.00 | 0.22 | 0.22 | 86 | 1010.1 |
| 20260509015017 | 70 | 113 | 5.0 | 7.0 | 0.00 | 0.22 | 0.22 | 85 | 1010.0 |
| 20260509014816 | 70 | 119 | 5.0 | 8.0 | 0.00 | 0.22 | 0.22 | 85 | 1009.7 |
| 20260509014626 | 70 | 117 | 6.0 | 8.0 | 0.00 | 0.22 | 0.22 | 85 | 1009.7 |
| 20260509014423 | 70 | 130 | 6.0 | 10.0 | 0.00 | 0.22 | 0.22 | 85 | 1009.5 |
| 20260509014242 | 70 | 144 | 6.0 | 10.0 | 0.00 | 0.22 | 0.22 | 85 | 1009.6 |
| 20260509014020 | 70 | 158 | 10.0 | 13.0 | 0.00 | 0.22 | 0.22 | 85 | 1009.3 |
| 20260509013819 | 70 | 158 | 9.0 | 12.0 | 0.00 | 0.22 | 0.22 | 85 | 1009.4 |
| 20260509013637 | 70 | 156 | 9.0 | 13.0 | 0.00 | 0.22 | 0.22 | 85 | 1009.4 |
| 20260509013536 | 70 | 162 | 9.0 | 13.0 | 0.00 | 0.22 | 0.22 | 85 | 1009.4 |
| 20260509013226 | 70 | 156 | 8.0 | 14.0 | 0.00 | 0.22 | 0.22 | 85 | 1009.3 |
| 20260509013023 | 70 | 167 | 10.0 | 12.0 | 0.00 | 0.22 | 0.22 | 85 | 1009.2 |
| 20260509012822 | 70 | 166 | 11.0 | 15.0 | 0.00 | 0.22 | 0.22 | 85 | 1009.3 |
| 20260509012620 | 70 | 169 | 8.0 | 11.0 | 0.00 | 0.22 | 0.22 | 85 | 1009.3 |
| 20260509012419 | 70 | 166 | 10.0 | 13.0 | 0.00 | 0.22 | 0.22 | 85 | 1009.2 |
| 20260509012217 | 70 | 163 | 9.0 | 11.0 | 0.00 | 0.22 | 0.22 | 85 | 1009.2 |
| 20260509012016 | 70 | 162 | 9.0 | 11.0 | 0.00 | 0.22 | 0.22 | 84 | 1009.4 |
| 20260509011844 | 70 | 164 | 7.0 | 10.0 | 0.00 | 0.22 | 0.22 | 84 | 1009.3 |
| 20260509011623 | 71 | 168 | 11.0 | 13.0 | 0.00 | 0.22 | 0.22 | 83 | 1009.4 |
| 20260509011421 | 71 | 166 | 10.0 | 13.0 | 0.00 | 0.22 | 0.22 | 83 | 1009.4 |
| 20260509011220 | 71 | 163 | 11.0 | 14.0 | 0.00 | 0.22 | 0.22 | 83 | 1009.3 |
| 20260509011039 | 71 | 160 | 8.0 | 11.0 | 0.00 | 0.22 | 0.22 | 83 | 1009.6 |
| 20260509010817 | 71 | 163 | 9.0 | 13.0 | 0.00 | 0.22 | 0.22 | 83 | 1009.3 |
| 20260509010616 | 71 | 157 | 10.0 | 12.0 | 0.00 | 0.22 | 0.22 | 83 | 1009.2 |
| 20260509010424 | 71 | 158 | 10.0 | 12.0 | 0.00 | 0.22 | 0.22 | 83 | 1009.5 |
| 20260509010223 | 71 | 163 | 8.0 | 9.0 | 0.00 | 0.22 | 0.22 | 83 | 1009.6 |
| 20260509010022 | 72 | 164 | 11.0 | 14.0 | 0.00 | 0.22 | 0.22 | 82 | 1009.6 |
| 20260509005820 | 72 | 170 | 8.0 | 10.0 | 0.00 | 0.22 | 0.22 | 82 | 1009.7 |
| 20260509005618 | 72 | 171 | 7.0 | 9.0 | 0.00 | 0.22 | 0.22 | 82 | 1009.7 |
| 20260509005417 | 72 | 171 | 9.0 | 12.0 | 0.00 | 0.22 | 0.22 | 81 | 1009.7 |
| 20260509005226 | 72 | 175 | 9.0 | 11.0 | 0.00 | 0.22 | 0.22 | 81 | 1009.8 |
| 20260509005024 | 72 | 173 | 12.0 | 13.0 | 0.00 | 0.22 | 0.22 | 81 | 1009.9 |
| 20260509004823 | 72 | 176 | 10.0 | 12.0 | 0.00 | 0.22 | 0.22 | 81 | 1009.8 |
| 20260509004621 | 72 | 172 | 11.0 | 14.0 | 0.00 | 0.22 | 0.22 | 81 | 1010.0 |
| 20260509004440 | 73 | 181 | 9.0 | 14.0 | 0.00 | 0.22 | 0.22 | 80 | 1010.1 |
| 20260509004218 | 73 | 176 | 10.0 | 15.0 | 0.00 | 0.22 | 0.22 | 79 | 1009.9 |
| 20260509004017 | 73 | 176 | 10.0 | 15.0 | 0.00 | 0.22 | 0.22 | 79 | 1010.1 |
| 20260509003825 | 73 | 175 | 11.0 | 13.0 | 0.00 | 0.22 | 0.22 | 79 | 1009.9 |
| 20260509003644 | 73 | 194 | 10.0 | 12.0 | 0.00 | 0.22 | 0.22 | 78 | 1009.9 |
| 20260509003443 | 73 | 194 | 11.0 | 15.0 | 0.00 | 0.22 | 0.22 | 78 | 1010.0 |
| 20260509003221 | 73 | 201 | 10.0 | 13.0 | 0.00 | 0.22 | 0.22 | 78 | 1009.8 |
| 20260509003021 | 74 | 191 | 10.0 | 12.0 | 0.00 | 0.22 | 0.22 | 78 | 1009.7 |
| 20260509002818 | 74 | 184 | 13.0 | 19.0 | 0.00 | 0.22 | 0.22 | 77 | 1009.8 |
| 20260509002616 | 74 | 202 | 12.0 | 17.0 | 0.00 | 0.22 | 0.22 | 77 | 1009.8 |
| 20260509002425 | 74 | 193 | 9.0 | 11.0 | 0.00 | 0.22 | 0.22 | 77 | 1009.8 |
| 20260509002223 | 74 | 189 | 10.0 | 12.0 | 0.00 | 0.22 | 0.22 | 77 | 1010.0 |
| 20260509002024 | 74 | 179 | 11.0 | 13.0 | 0.00 | 0.22 | 0.22 | 76 | 1010.0 |
| 20260509001841 | 74 | 194 | 12.0 | 15.0 | 0.00 | 0.22 | 0.22 | 76 | 1009.9 |
| 20260509001619 | 74 | 189 | 8.0 | 11.0 | 0.00 | 0.22 | 0.22 | 76 | 1009.9 |
| 20260509001418 | 74 | 176 | 9.0 | 14.0 | 0.00 | 0.22 | 0.22 | 76 | 1010.0 |
| 20260509001218 | 74 | 168 | 10.0 | 13.0 | 0.00 | 0.22 | 0.22 | 75 | 1009.8 |
| 20260509001027 | 75 | 166 | 8.0 | 11.0 | 0.00 | 0.22 | 0.22 | 75 | 1009.9 |
| 20260509000944 | 74 | 164 | 10.0 | 13.0 | 0.00 | 0.22 | 0.22 | 75 | 1010.0 |
| 20260509000622 | 74 | 175 | 11.0 | 14.0 | 0.00 | 0.22 | 0.22 | 74 | 1009.6 |
| 20260509000420 | 74 | 171 | 13.0 | 17.0 | 0.00 | 0.22 | 0.22 | 74 | 1009.6 |
| 20260509000219 | 75 | 182 | 13.0 | 15.0 | 0.00 | 0.22 | 0.22 | 74 | 1009.6 |
| 20260509000021 | 75 | 179 | 13.0 | 17.0 | 0.00 | 0.22 | 0.22 | 74 | 1009.6 |
| 20260508235816 | 75 | 172 | 15.0 | 18.0 | 0.00 | 0.22 | 0.22 | 74 | 1009.7 |
| 20260508235625 | 75 | 171 | 15.0 | 18.0 | 0.00 | 0.22 | 0.22 | 74 | 1009.5 |
| 20260508235443 | 75 | 180 | 14.0 | 19.0 | 0.00 | 0.22 | 0.22 | 74 | 1009.6 |
| 20260508235222 | 75 | 184 | 13.0 | 17.0 | 0.00 | 0.22 | 0.22 | 74 | 1009.5 |
| 20260508235020 | 75 | 193 | 12.0 | 16.0 | 0.00 | 0.22 | 0.22 | 74 | 1009.5 |
| 20260508234841 | 75 | 179 | 12.0 | 18.0 | 0.00 | 0.22 | 0.22 | 74 | 1009.5 |
| 20260508234637 | 75 | 171 | 13.0 | 15.0 | 0.00 | 0.22 | 0.22 | 74 | 1009.5 |
| 20260508234416 | 76 | 179 | 11.0 | 13.0 | 0.00 | 0.22 | 0.22 | 74 | 1009.7 |
| 20260508234224 | 75 | 183 | 12.0 | 15.0 | 0.00 | 0.22 | 0.22 | 73 | 1009.7 |
| 20260508234023 | 76 | 173 | 12.0 | 17.0 | 0.00 | 0.22 | 0.22 | 73 | 1009.5 |
| 20260508233821 | 76 | 170 | 10.0 | 14.0 | 0.00 | 0.22 | 0.22 | 74 | 1009.5 |
| 20260508233640 | 76 | 155 | 13.0 | 16.0 | 0.00 | 0.22 | 0.22 | 72 | 1009.7 |
| 20260508233419 | 76 | 183 | 10.0 | 14.0 | 0.00 | 0.22 | 0.22 | 73 | 1009.6 |
| 20260508233217 | 76 | 179 | 10.0 | 12.0 | 0.00 | 0.22 | 0.22 | 73 | 1009.5 |
| 20260508233036 | 76 | 165 | 9.0 | 15.0 | 0.00 | 0.22 | 0.22 | 73 | 1009.4 |
| 20260508232824 | 76 | 176 | 12.0 | 15.0 | 0.00 | 0.22 | 0.22 | 73 | 1009.7 |
| 20260508232645 | 76 | 178 | 12.0 | 15.0 | 0.00 | 0.22 | 0.22 | 73 | 1009.6 |
| 20260508232424 | 76 | 173 | 12.0 | 15.0 | 0.00 | 0.22 | 0.22 | 73 | 1009.6 |
| 20260508232220 | 76 | 182 | 13.0 | 16.0 | 0.00 | 0.22 | 0.22 | 73 | 1009.5 |
| 20260508232018 | 76 | 177 | 13.0 | 15.0 | 0.00 | 0.22 | 0.22 | 72 | 1009.7 |
| 20260508231817 | 76 | 172 | 12.0 | 17.0 | 0.00 | 0.22 | 0.22 | 73 | 1009.7 |
| 20260508231615 | 77 | 153 | 8.0 | 14.0 | 0.00 | 0.22 | 0.22 | 72 | 1009.7 |
| 20260508231445 | 76 | 173 | 11.0 | 16.0 | 0.00 | 0.22 | 0.22 | 73 | 1009.7 |
| 20260508231222 | 76 | 165 | 13.0 | 16.0 | 0.00 | 0.22 | 0.22 | 72 | 1009.6 |
| 20260508231021 | 77 | 173 | 11.0 | 14.0 | 0.00 | 0.22 | 0.22 | 73 | 1009.9 |
| 20260508230820 | 76 | 170 | 10.0 | 14.0 | 0.00 | 0.22 | 0.22 | 73 | 1009.8 |
| 20260508230639 | 77 | 168 | 12.0 | 15.0 | 0.00 | 0.22 | 0.22 | 72 | 1009.9 |
| 20260508230417 | 77 | 149 | 11.0 | 13.0 | 0.00 | 0.22 | 0.22 | 72 | 1009.8 |
| 20260508230305 | 77 | 173 | 12.0 | 15.0 | 0.00 | 0.22 | 0.22 | 72 | 1010.0 |
| 20260508230044 | 77 | 173 | 14.0 | 17.0 | 0.00 | 0.22 | 0.22 | 72 | 1010.0 |
| 20260508225823 | 77 | 174 | 10.0 | 13.0 | 0.00 | 0.22 | 0.22 | 73 | 1009.8 |
| 20260508225623 | 77 | 159 | 12.0 | 15.0 | 0.00 | 0.22 | 0.22 | 71 | 1009.7 |
| 20260508225439 | 77 | 168 | 13.0 | 16.0 | 0.00 | 0.22 | 0.22 | 72 | 1009.9 |
| 20260508225218 | 77 | 168 | 13.0 | 17.0 | 0.00 | 0.22 | 0.22 | 72 | 1009.9 |
| 20260508225017 | 77 | 169 | 12.0 | 17.0 | 0.00 | 0.22 | 0.22 | 72 | 1010.0 |
| 20260508224945 | 78 | 152 | 13.0 | 19.0 | 0.00 | 0.22 | 0.22 | 71 | 1009.9 |
| 20260508224624 | 78 | 145 | 11.0 | 13.0 | 0.00 | 0.22 | 0.22 | 70 | 1009.9 |
| 20260508224422 | 78 | 152 | 9.0 | 15.0 | 0.00 | 0.22 | 0.22 | 71 | 1010.0 |
| 20260508224221 | 78 | 145 | 11.0 | 14.0 | 0.00 | 0.22 | 0.22 | 70 | 1009.9 |
| 20260508224021 | 78 | 140 | 10.0 | 14.0 | 0.00 | 0.22 | 0.22 | 70 | 1009.8 |
| 20260508223819 | 78 | 168 | 11.0 | 14.0 | 0.00 | 0.22 | 0.22 | 71 | 1010.0 |
| 20260508223616 | 78 | 158 | 9.0 | 15.0 | 0.00 | 0.22 | 0.22 | 70 | 1010.0 |
| 20260508223445 | 78 | 146 | 10.0 | 14.0 | 0.00 | 0.22 | 0.22 | 70 | 1010.1 |
| 20260508223224 | 78 | 162 | 10.0 | 15.0 | 0.00 | 0.22 | 0.22 | 70 | 1009.9 |
| 20260508223022 | 78 | 164 | 10.0 | 13.0 | 0.00 | 0.22 | 0.22 | 70 | 1009.9 |
| 20260508222823 | 78 | 160 | 10.0 | 15.0 | 0.00 | 0.22 | 0.22 | 70 | 1009.9 |
| 20260508222619 | 78 | 141 | 7.0 | 12.0 | 0.00 | 0.22 | 0.22 | 69 | 1010.0 |
| 20260508222438 | 78 | 165 | 10.0 | 12.0 | 0.00 | 0.22 | 0.22 | 71 | 1009.8 |
| 20260508222217 | 78 | 185 | 11.0 | 15.0 | 0.00 | 0.22 | 0.22 | 70 | 1009.9 |
| 20260508222025 | 77 | 166 | 7.0 | 11.0 | 0.00 | 0.22 | 0.22 | 71 | 1010.0 |
| 20260508221824 | 78 | 160 | 8.0 | 11.0 | 0.00 | 0.22 | 0.22 | 70 | 1010.1 |
| 20260508221622 | 77 | 158 | 11.0 | 13.0 | 0.00 | 0.22 | 0.22 | 71 | 1010.0 |
| 20260508221421 | 78 | 159 | 9.0 | 13.0 | 0.00 | 0.22 | 0.22 | 71 | 1010.1 |
| 20260508221219 | 77 | 179 | 9.0 | 11.0 | 0.00 | 0.22 | 0.22 | 71 | 1009.9 |
| 20260508221018 | 77 | 205 | 10.0 | 13.0 | 0.00 | 0.22 | 0.22 | 71 | 1009.9 |
| 20260508220836 | 78 | 187 | 9.0 | 13.0 | 0.00 | 0.22 | 0.22 | 71 | 1009.9 |
| 20260508220627 | 77 | 171 | 10.0 | 15.0 | 0.00 | 0.22 | 0.22 | 71 | 1009.7 |
| 20260508220424 | 78 | 183 | 11.0 | 14.0 | 0.00 | 0.22 | 0.22 | 70 | 1010.1 |
| 20260508220222 | 77 | 194 | 10.0 | 12.0 | 0.00 | 0.22 | 0.22 | 70 | 1009.9 |
| 20260508220021 | 78 | 142 | 10.0 | 14.0 | 0.00 | 0.22 | 0.22 | 69 | 1009.8 |
| 20260508215821 | 78 | 145 | 9.0 | 13.0 | 0.00 | 0.22 | 0.22 | 69 | 1009.9 |
| 20260508215621 | 78 | 140 | 8.0 | 10.0 | 0.00 | 0.22 | 0.22 | 68 | 1010.0 |
| 20260508215416 | 78 | 148 | 8.0 | 12.0 | 0.00 | 0.22 | 0.22 | 69 | 1010.1 |
| 20260508215225 | 79 | 156 | 9.0 | 13.0 | 0.00 | 0.22 | 0.22 | 69 | 1010.2 |
| 20260508215023 | 78 | 165 | 7.0 | 11.0 | 0.00 | 0.22 | 0.22 | 70 | 1010.0 |
| 20260508214822 | 77 | 138 | 7.0 | 10.0 | 0.00 | 0.22 | 0.22 | 69 | 1010.1 |
| 20260508214621 | 77 | 162 | 9.0 | 12.0 | 0.00 | 0.22 | 0.22 | 70 | 1010.2 |
| 20260508214419 | 77 | 154 | 10.0 | 15.0 | 0.00 | 0.22 | 0.22 | 70 | 1010.0 |
| 20260508214220 | 77 | 135 | 10.0 | 15.0 | 0.00 | 0.22 | 0.22 | 70 | 1010.3 |
| 20260508214019 | 77 | 154 | 12.0 | 15.0 | 0.00 | 0.22 | 0.22 | 69 | 1010.2 |
| 20260508213827 | 77 | 139 | 10.0 | 14.0 | 0.00 | 0.22 | 0.22 | 69 | 1010.3 |
| 20260508213623 | 77 | 171 | 11.0 | 14.0 | 0.00 | 0.22 | 0.22 | 71 | 1010.1 |
| 20260508213422 | 77 | 170 | 11.0 | 13.0 | 0.00 | 0.22 | 0.22 | 70 | 1010.2 |
| 20260508213223 | 77 | 169 | 12.0 | 14.0 | 0.00 | 0.22 | 0.22 | 71 | 1010.1 |
| 20260508213039 | 78 | 174 | 11.0 | 16.0 | 0.00 | 0.22 | 0.22 | 70 | 1010.3 |
| 20260508212817 | 77 | 167 | 7.0 | 11.0 | 0.00 | 0.22 | 0.22 | 71 | 1010.2 |
| 20260508212616 | 77 | 155 | 8.0 | 11.0 | 0.00 | 0.22 | 0.22 | 70 | 1010.2 |
| 20260508212427 | 77 | 192 | 11.0 | 14.0 | 0.00 | 0.22 | 0.22 | 70 | 1010.4 |
| 20260508212223 | 77 | 149 | 5.0 | 9.0 | 0.00 | 0.22 | 0.22 | 69 | 1010.4 |
| 20260508212022 | 76 | 170 | 9.0 | 13.0 | 0.00 | 0.22 | 0.22 | 71 | 1010.5 |
| 20260508211842 | 76 | 179 | 9.0 | 13.0 | 0.00 | 0.22 | 0.22 | 70 | 1010.4 |
| 20260508211619 | 77 | 169 | 10.0 | 15.0 | 0.00 | 0.22 | 0.22 | 70 | 1010.5 |
| 20260508211417 | 77 | 152 | 10.0 | 14.0 | 0.00 | 0.22 | 0.22 | 69 | 1010.4 |
| 20260508211218 | 77 | 130 | 9.0 | 13.0 | 0.00 | 0.22 | 0.22 | 69 | 1010.6 |
| 20260508211045 | 77 | 151 | 10.0 | 16.0 | 0.00 | 0.22 | 0.22 | 70 | 1010.5 |
| 20260508210823 | 77 | 151 | 9.0 | 14.0 | 0.00 | 0.22 | 0.22 | 71 | 1010.6 |
| 20260508210621 | 76 | 153 | 11.0 | 16.0 | 0.00 | 0.22 | 0.22 | 71 | 1010.4 |
| 20260508210422 | 76 | 186 | 14.0 | 17.0 | 0.00 | 0.22 | 0.22 | 72 | 1010.5 |
| 20260508210220 | 76 | 179 | 13.0 | 17.0 | 0.00 | 0.22 | 0.22 | 72 | 1010.6 |
| 20260508210017 | 76 | 183 | 14.0 | 18.0 | 0.00 | 0.22 | 0.22 | 72 | 1010.6 |
| 20260508205816 | 76 | 192 | 15.0 | 23.0 | 0.00 | 0.22 | 0.22 | 72 | 1010.5 |
| 20260508205624 | 76 | 195 | 13.0 | 18.0 | 0.00 | 0.22 | 0.22 | 72 | 1010.5 |
| 20260508205443 | 76 | 198 | 14.0 | 19.0 | 0.00 | 0.22 | 0.22 | 72 | 1010.7 |
| 20260508205221 | 76 | 204 | 15.0 | 23.0 | 0.00 | 0.22 | 0.22 | 73 | 1010.6 |
| 20260508205041 | 76 | 183 | 15.0 | 20.0 | 0.00 | 0.22 | 0.22 | 72 | 1010.7 |
| 20260508204818 | 76 | 201 | 13.0 | 19.0 | 0.00 | 0.22 | 0.22 | 72 | 1010.7 |
| 20260508204617 | 76 | 183 | 16.0 | 24.0 | 0.00 | 0.22 | 0.22 | 72 | 1010.8 |
| 20260508204416 | 77 | 182 | 13.0 | 16.0 | 0.00 | 0.22 | 0.22 | 72 | 1010.8 |
| 20260508204227 | 77 | 172 | 15.0 | 20.0 | 0.00 | 0.22 | 0.22 | 72 | 1010.9 |
| 20260508204023 | 77 | 187 | 16.0 | 21.0 | 0.00 | 0.22 | 0.22 | 72 | 1010.9 |
| 20260508203821 | 77 | 187 | 15.0 | 21.0 | 0.00 | 0.22 | 0.22 | 72 | 1010.9 |
| 20260508203640 | 78 | 186 | 9.0 | 11.0 | 0.00 | 0.22 | 0.22 | 72 | 1011.1 |
| 20260508203441 | 77 | 168 | 13.0 | 20.0 | 0.00 | 0.22 | 0.22 | 71 | 1011.0 |
| 20260508203219 | 77 | 167 | 14.0 | 20.0 | 0.00 | 0.22 | 0.22 | 71 | 1011.1 |
| 20260508203018 | 78 | 168 | 16.0 | 22.0 | 0.00 | 0.22 | 0.22 | 70 | 1011.0 |
| 20260508202844 | 77 | 152 | 12.0 | 16.0 | 0.00 | 0.22 | 0.22 | 70 | 1011.0 |
| 20260508202623 | 77 | 173 | 15.0 | 18.0 | 0.00 | 0.22 | 0.22 | 70 | 1011.1 |
| 20260508202421 | 77 | 181 | 15.0 | 19.0 | 0.00 | 0.22 | 0.22 | 70 | 1011.2 |
| 20260508202240 | 77 | 183 | 14.0 | 18.0 | 0.00 | 0.22 | 0.22 | 70 | 1011.2 |
| 20260508202018 | 78 | 188 | 12.0 | 16.0 | 0.00 | 0.22 | 0.22 | 70 | 1011.3 |
| 20260508201837 | 77 | 180 | 13.0 | 17.0 | 0.00 | 0.22 | 0.22 | 70 | 1011.2 |
| 20260508201625 | 76 | 174 | 14.0 | 19.0 | 0.00 | 0.22 | 0.22 | 69 | 1011.4 |
| 20260508201424 | 77 | 176 | 14.0 | 19.0 | 0.00 | 0.22 | 0.22 | 68 | 1011.5 |
| 20260508201222 | 77 | 175 | 13.0 | 15.0 | 0.00 | 0.22 | 0.22 | 70 | 1011.4 |
| 20260508201021 | 77 | 171 | 13.0 | 18.0 | 0.00 | 0.22 | 0.22 | 70 | 1011.4 |
| 20260508200819 | 77 | 173 | 11.0 | 15.0 | 0.00 | 0.22 | 0.22 | 71 | 1011.5 |
| 20260508200638 | 77 | 189 | 13.0 | 17.0 | 0.00 | 0.22 | 0.22 | 72 | 1011.4 |
| 20260508200419 | 76 | 176 | 15.0 | 18.0 | 0.00 | 0.22 | 0.22 | 72 | 1011.5 |
| 20260508200225 | 77 | 182 | 16.0 | 21.0 | 0.00 | 0.22 | 0.22 | 72 | 1011.3 |
| 20260508200024 | 77 | 182 | 16.0 | 21.0 | 0.00 | 0.22 | 0.22 | 72 | 1011.4 |
| 20260508195842 | 77 | 175 | 13.0 | 18.0 | 0.00 | 0.22 | 0.22 | 72 | 1011.4 |
| 20260508195621 | 77 | 167 | 13.0 | 17.0 | 0.00 | 0.22 | 0.22 | 71 | 1011.5 |
| 20260508195420 | 77 | 180 | 14.0 | 20.0 | 0.00 | 0.22 | 0.22 | 72 | 1011.4 |
| 20260508195218 | 76 | 189 | 11.0 | 17.0 | 0.00 | 0.22 | 0.22 | 73 | 1011.5 |
| 20260508195017 | 77 | 180 | 14.0 | 19.0 | 0.00 | 0.22 | 0.22 | 71 | 1011.4 |
| 20260508194825 | 77 | 154 | 12.0 | 17.0 | 0.00 | 0.22 | 0.22 | 70 | 1011.4 |
| 20260508194624 | 77 | 153 | 11.0 | 15.0 | 0.00 | 0.22 | 0.22 | 71 | 1011.5 |
| 20260508194442 | 77 | 160 | 12.0 | 14.0 | 0.00 | 0.22 | 0.22 | 70 | 1011.8 |
| 20260508194221 | 76 | 168 | 14.0 | 17.0 | 0.00 | 0.22 | 0.22 | 71 | 1011.7 |
| 20260508194019 | 77 | 144 | 12.0 | 16.0 | 0.00 | 0.22 | 0.22 | 70 | 1011.7 |
| 20260508193838 | 77 | 154 | 9.0 | 14.0 | 0.00 | 0.22 | 0.22 | 71 | 1011.7 |
| 20260508193618 | 76 | 164 | 12.0 | 18.0 | 0.00 | 0.22 | 0.22 | 71 | 1011.8 |
| 20260508193425 | 76 | 150 | 11.0 | 15.0 | 0.00 | 0.22 | 0.22 | 70 | 1011.9 |
| 20260508193243 | 77 | 170 | 10.0 | 13.0 | 0.00 | 0.22 | 0.22 | 71 | 1012.0 |
| 20260508193044 | 78 | 191 | 13.0 | 17.0 | 0.00 | 0.22 | 0.22 | 70 | 1011.9 |
| 20260508192821 | 77 | 199 | 14.0 | 17.0 | 0.00 | 0.22 | 0.22 | 70 | 1012.0 |
| 20260508192619 | 77 | 158 | 12.0 | 14.0 | 0.00 | 0.22 | 0.22 | 70 | 1012.2 |
| 20260508192419 | 77 | 187 | 10.0 | 13.0 | 0.00 | 0.22 | 0.22 | 71 | 1012.0 |
| 20260508192216 | 77 | 196 | 15.0 | 23.0 | 0.00 | 0.22 | 0.22 | 71 | 1012.0 |
| 20260508192045 | 77 | 200 | 14.0 | 19.0 | 0.00 | 0.22 | 0.22 | 70 | 1012.1 |
| 20260508191904 | 77 | 200 | 12.0 | 18.0 | 0.00 | 0.22 | 0.22 | 70 | 1012.2 |
| 20260508191622 | 77 | 191 | 12.0 | 17.0 | 0.00 | 0.22 | 0.22 | 69 | 1012.0 |
| 20260508191424 | 76 | 174 | 10.0 | 14.0 | 0.00 | 0.22 | 0.22 | 70 | 1012.1 |
| 20260508191219 | 76 | 181 | 11.0 | 14.0 | 0.00 | 0.22 | 0.22 | 69 | 1012.4 |
| 20260508191017 | 76 | 205 | 11.0 | 17.0 | 0.00 | 0.22 | 0.22 | 67 | 1012.4 |
| 20260508190816 | 76 | 174 | 8.0 | 11.0 | 0.00 | 0.22 | 0.22 | 69 | 1012.4 |
| 20260508190627 | 76 | 192 | 11.0 | 15.0 | 0.00 | 0.22 | 0.22 | 67 | 1012.3 |
| 20260508190446 | 76 | 144 | 10.0 | 12.0 | 0.00 | 0.22 | 0.22 | 66 | 1012.5 |
| 20260508190222 | 76 | 157 | 11.0 | 15.0 | 0.00 | 0.22 | 0.22 | 68 | 1012.7 |
| 20260508190040 | 77 | 172 | 13.0 | 15.0 | 0.00 | 0.22 | 0.22 | 68 | 1012.6 |
| 20260508185819 | 77 | 172 | 9.0 | 13.0 | 0.00 | 0.22 | 0.22 | 68 | 1012.4 |
| 20260508185617 | 76 | 196 | 8.0 | 11.0 | 0.00 | 0.22 | 0.22 | 68 | 1012.6 |
| 20260508185416 | 77 | 168 | 8.0 | 13.0 | 0.00 | 0.22 | 0.22 | 67 | 1012.6 |
| 20260508185225 | 76 | 174 | 7.0 | 9.0 | 0.00 | 0.22 | 0.22 | 69 | 1012.6 |
| 20260508185023 | 76 | 204 | 10.0 | 13.0 | 0.00 | 0.22 | 0.22 | 69 | 1012.4 |
| 20260508184842 | 76 | 153 | 7.0 | 9.0 | 0.00 | 0.22 | 0.22 | 68 | 1012.5 |
| 20260508184620 | 76 | 170 | 11.0 | 15.0 | 0.00 | 0.22 | 0.22 | 70 | 1012.5 |
| 20260508184439 | 76 | 195 | 8.0 | 12.0 | 0.00 | 0.22 | 0.22 | 70 | 1012.5 |
| 20260508184221 | 75 | 195 | 10.0 | 13.0 | 0.00 | 0.22 | 0.22 | 70 | 1012.7 |
| 20260508184016 | 76 | 169 | 10.0 | 14.0 | 0.00 | 0.22 | 0.22 | 69 | 1012.6 |
| 20260508183826 | 76 | 179 | 9.0 | 13.0 | 0.00 | 0.22 | 0.22 | 69 | 1012.7 |
| 20260508183625 | 76 | 166 | 9.0 | 13.0 | 0.00 | 0.22 | 0.22 | 69 | 1012.8 |
| 20260508183422 | 77 | 173 | 10.0 | 13.0 | 0.00 | 0.22 | 0.22 | 68 | 1012.7 |
| 20260508183220 | 77 | 110 | 6.0 | 11.0 | 0.00 | 0.22 | 0.22 | 66 | 1012.7 |
| 20260508183019 | 75 | 164 | 7.0 | 10.0 | 0.00 | 0.22 | 0.22 | 71 | 1012.8 |
| 20260508182817 | 75 | 200 | 12.0 | 14.0 | 0.00 | 0.22 | 0.22 | 70 | 1012.7 |
| 20260508182619 | 75 | 186 | 11.0 | 14.0 | 0.00 | 0.22 | 0.22 | 71 | 1012.9 |
| 20260508182425 | 75 | 166 | 6.0 | 9.0 | 0.00 | 0.22 | 0.22 | 71 | 1012.8 |
| 20260508182223 | 74 | 153 | 8.0 | 10.0 | 0.00 | 0.22 | 0.22 | 70 | 1012.9 |
| 20260508182024 | 75 | 173 | 10.0 | 15.0 | 0.00 | 0.22 | 0.22 | 71 | 1012.8 |
| 20260508181820 | 74 | 183 | 6.0 | 9.0 | 0.00 | 0.22 | 0.22 | 71 | 1012.9 |
| 20260508181619 | 74 | 177 | 8.0 | 11.0 | 0.00 | 0.22 | 0.22 | 71 | 1013.1 |
| 20260508181418 | 75 | 176 | 11.0 | 15.0 | 0.00 | 0.22 | 0.22 | 70 | 1013.1 |
| 20260508181216 | 74 | 160 | 9.0 | 14.0 | 0.00 | 0.22 | 0.22 | 70 | 1013.0 |
| 20260508181027 | 74 | 167 | 7.0 | 10.0 | 0.00 | 0.22 | 0.22 | 73 | 1013.4 |
| 20260508180825 | 74 | 162 | 9.0 | 11.0 | 0.00 | 0.22 | 0.22 | 71 | 1013.2 |
| 20260508180621 | 74 | 164 | 10.0 | 13.0 | 0.00 | 0.22 | 0.22 | 72 | 1013.4 |
| 20260508180420 | 73 | 195 | 8.0 | 16.0 | 0.00 | 0.22 | 0.22 | 73 | 1013.4 |
| 20260508180218 | 73 | 181 | 14.0 | 18.0 | 0.00 | 0.22 | 0.22 | 73 | 1013.4 |
| 20260508180017 | 74 | 159 | 11.0 | 14.0 | 0.00 | 0.22 | 0.22 | 71 | 1013.2 |
| 20260508175956 | 74 | 153 | 10.0 | 13.0 | 0.00 | 0.22 | 0.22 | 72 | 1013.4 |
| 20260508175624 | 73 | 200 | 7.0 | 12.0 | 0.00 | 0.22 | 0.22 | 74 | 1013.3 |
| 20260508175423 | 73 | 200 | 10.0 | 12.0 | 0.00 | 0.22 | 0.22 | 73 | 1013.4 |
| 20260508175241 | 75 | 184 | 9.0 | 12.0 | 0.00 | 0.22 | 0.22 | 72 | 1013.5 |
| 20260508175021 | 75 | 164 | 6.0 | 8.0 | 0.00 | 0.22 | 0.22 | 70 | 1013.6 |
| 20260508174838 | 73 | 128 | 6.0 | 11.0 | 0.00 | 0.22 | 0.22 | 71 | 1013.6 |
| 20260508174637 | 72 | 183 | 13.0 | 17.0 | 0.00 | 0.22 | 0.22 | 74 | 1013.5 |
| 20260508174426 | 73 | 179 | 12.0 | 16.0 | 0.00 | 0.22 | 0.22 | 72 | 1013.5 |
| 20260508174244 | 73 | 168 | 11.0 | 14.0 | 0.00 | 0.22 | 0.22 | 74 | 1013.5 |
| 20260508174023 | 73 | 179 | 10.0 | 15.0 | 0.00 | 0.22 | 0.22 | 72 | 1013.6 |
| 20260508173821 | 73 | 164 | 10.0 | 14.0 | 0.00 | 0.22 | 0.22 | 70 | 1013.7 |